2016 Cux-Wetter.de -Die Nutzung der Wetterdaten nur mit ausdrcklicher Genehmigung
Wetterdaten: Mittwoch, 13.09.2017
Datum Zeit Temp. A. Feuchte A. Luftdruck Regen Wind Richtung Richtung Sonnenschein Solar Taupunkt Windchill Windben
13.09.2017 00:00 12,9 C 89 % 1002,8 hPa 0,0 l/m 12,2 km/h (2 Bft) SW 223 0 min 0 W/m 11,1 C 9,8 C 25,7 km/h (4 Bft)
13.09.2017 00:03 12,8 C 89 % 1002,8 hPa 0,0 l/m 10,5 km/h (2 Bft) W-SW 237 0 min 0 W/m 11,0 C 10,4 C 20,9 km/h (4 Bft)
13.09.2017 00:06 12,8 C 89 % 1002,7 hPa 0,0 l/m 13,0 km/h (3 Bft) S-SW 192 0 min 0 W/m 11,0 C 9,3 C 20,9 km/h (4 Bft)
13.09.2017 00:09 12,8 C 89 % 1002,7 hPa 0,0 l/m 12,6 km/h (3 Bft) S 171 0 min 0 W/m 11,0 C 9,5 C 19,3 km/h (3 Bft)
13.09.2017 00:12 12,8 C 89 % 1002,6 hPa 0,0 l/m 9,4 km/h (2 Bft) S-SW 209 0 min 0 W/m 11,0 C 11,0 C 17,7 km/h (3 Bft)
13.09.2017 00:15 12,7 C 90 % 1002,5 hPa 0,0 l/m 11,6 km/h (2 Bft) S 185 0 min 0 W/m 11,1 C 9,8 C 17,7 km/h (3 Bft)
13.09.2017 00:18 12,7 C 90 % 1002,5 hPa 0,0 l/m 8,9 km/h (2 Bft) S-SW 201 0 min 0 W/m 11,1 C 11,2 C 16,1 km/h (3 Bft)
13.09.2017 00:21 12,7 C 90 % 1002,5 hPa 0,0 l/m 10,8 km/h (2 Bft) W 263 0 min 0 W/m 11,1 C 10,2 C 19,3 km/h (3 Bft)
13.09.2017 00:24 12,6 C 90 % 1002,5 hPa 0,0 l/m 9,6 km/h (2 Bft) S-SW 211 0 min 0 W/m 11,0 C 10,7 C 17,7 km/h (3 Bft)
13.09.2017 00:27 12,6 C 90 % 1002,5 hPa 0,0 l/m 10,8 km/h (2 Bft) SW 231 0 min 0 W/m 11,0 C 10,1 C 16,1 km/h (3 Bft)
13.09.2017 00:30 12,6 C 90 % 1002,5 hPa 0,0 l/m 11,4 km/h (2 Bft) S-SW 198 0 min 0 W/m 11,0 C 9,8 C 17,7 km/h (3 Bft)
13.09.2017 00:33 12,5 C 90 % 1002,4 hPa 0,0 l/m 12,7 km/h (3 Bft) SW 221 0 min 0 W/m 10,9 C 9,1 C 19,3 km/h (3 Bft)
13.09.2017 00:36 12,5 C 90 % 1002,4 hPa 0,0 l/m 11,3 km/h (2 Bft) S 178 0 min 0 W/m 10,9 C 9,7 C 22,5 km/h (4 Bft)
13.09.2017 00:39 12,4 C 90 % 1002,5 hPa 0,0 l/m 9,5 km/h (2 Bft) S-SO 163 0 min 0 W/m 10,8 C 10,5 C 16,1 km/h (3 Bft)
13.09.2017 00:42 12,4 C 90 % 1002,4 hPa 0,0 l/m 11,7 km/h (2 Bft) SW 219 0 min 0 W/m 10,8 C 9,4 C 20,9 km/h (4 Bft)
13.09.2017 00:45 12,4 C 90 % 1002,4 hPa 0,0 l/m 12,7 km/h (3 Bft) S-SW 209 0 min 0 W/m 10,8 C 9,0 C 22,5 km/h (4 Bft)
13.09.2017 00:48 12,4 C 90 % 1002,3 hPa 0,0 l/m 11,6 km/h (2 Bft) S-SW 213 0 min 0 W/m 10,8 C 9,5 C 19,3 km/h (3 Bft)
13.09.2017 00:51 12,3 C 90 % 1002,3 hPa 0,0 l/m 11,9 km/h (2 Bft) S 175 0 min 0 W/m 10,7 C 9,2 C 19,3 km/h (3 Bft)
13.09.2017 00:54 12,3 C 90 % 1002,3 hPa 0,0 l/m 11,6 km/h (2 Bft) S-SW 209 0 min 0 W/m 10,7 C 9,3 C 20,9 km/h (4 Bft)
13.09.2017 00:57 12,3 C 90 % 1002,2 hPa 0,0 l/m 9,7 km/h (2 Bft) SW 220 0 min 0 W/m 10,7 C 10,3 C 16,1 km/h (3 Bft)
13.09.2017 01:00 12,3 C 90 % 1002,2 hPa 0,0 l/m 9,2 km/h (2 Bft) S 191 0 min 0 W/m 10,7 C 10,6 C 14,5 km/h (3 Bft)
13.09.2017 01:03 12,2 C 90 % 1002,1 hPa 0,0 l/m 7,2 km/h (2 Bft) S-SO 149 0 min 0 W/m 10,6 C 11,7 C 14,5 km/h (3 Bft)
13.09.2017 01:06 12,2 C 90 % 1002,1 hPa 0,0 l/m 8,6 km/h (2 Bft) SW 225 0 min 0 W/m 10,6 C 10,8 C 17,7 km/h (3 Bft)
13.09.2017 01:09 12,2 C 91 % 1002,0 hPa 0,0 l/m 7,7 km/h (2 Bft) S-SW 207 0 min 0 W/m 10,8 C 11,3 C 19,3 km/h (3 Bft)
13.09.2017 01:12 12,1 C 91 % 1001,9 hPa 0,0 l/m 7,7 km/h (2 Bft) W-SW 238 0 min 0 W/m 10,7 C 11,2 C 16,1 km/h (3 Bft)
13.09.2017 01:15 12,1 C 91 % 1001,9 hPa 0,0 l/m 9,8 km/h (2 Bft) SW 214 0 min 0 W/m 10,7 C 10,0 C 20,9 km/h (4 Bft)
13.09.2017 01:18 12,1 C 91 % 1001,8 hPa 0,0 l/m 9,9 km/h (2 Bft) S-SO 167 0 min 0 W/m 10,7 C 10,0 C 17,7 km/h (3 Bft)
13.09.2017 01:21 12,0 C 91 % 1001,7 hPa 0,0 l/m 6,4 km/h (2 Bft) S 180 0 min 0 W/m 10,6 C 12,0 C 12,9 km/h (3 Bft)
13.09.2017 01:24 11,9 C 91 % 1001,7 hPa 0,0 l/m 7,9 km/h (2 Bft) SW 217 0 min 0 W/m 10,5 C 10,9 C 17,7 km/h (3 Bft)
13.09.2017 01:27 11,9 C 91 % 1001,6 hPa 0,0 l/m 9,1 km/h (2 Bft) S-SW 192 0 min 0 W/m 10,5 C 10,2 C 17,7 km/h (3 Bft)
13.09.2017 01:30 11,9 C 91 % 1001,6 hPa 0,0 l/m 9,7 km/h (2 Bft) S 175 0 min 0 W/m 10,5 C 9,9 C 16,1 km/h (3 Bft)
13.09.2017 01:33 11,9 C 91 % 1001,4 hPa 0,0 l/m 8,1 km/h (2 Bft) S 190 0 min 0 W/m 10,5 C 10,8 C 16,1 km/h (3 Bft)
13.09.2017 01:36 11,8 C 91 % 1001,4 hPa 0,0 l/m 8,4 km/h (2 Bft) W-SW 240 0 min 0 W/m 10,4 C 10,5 C 20,9 km/h (4 Bft)
13.09.2017 01:39 11,8 C 91 % 1001,4 hPa 0,0 l/m 6,6 km/h (2 Bft) S-SO 168 0 min 0 W/m 10,4 C 11,7 C 11,3 km/h (2 Bft)
13.09.2017 01:42 11,8 C 91 % 1001,3 hPa 0,0 l/m 7,5 km/h (2 Bft) S 184 0 min 0 W/m 10,4 C 11,1 C 14,5 km/h (3 Bft)
13.09.2017 01:45 11,8 C 91 % 1001,3 hPa 0,0 l/m 8,7 km/h (2 Bft) S 191 0 min 0 W/m 10,4 C 10,3 C 19,3 km/h (3 Bft)
13.09.2017 01:48 11,8 C 91 % 1001,3 hPa 0,0 l/m 8,4 km/h (2 Bft) S 189 0 min 0 W/m 10,4 C 10,5 C 14,5 km/h (3 Bft)
13.09.2017 01:51 11,8 C 91 % 1001,2 hPa 0,0 l/m 9,3 km/h (2 Bft) S 175 0 min 0 W/m 10,4 C 10,0 C 17,7 km/h (3 Bft)
13.09.2017 01:54 11,8 C 91 % 1001,2 hPa 0,0 l/m 9,0 km/h (2 Bft) S-SW 204 0 min 0 W/m 10,4 C 10,1 C 16,1 km/h (3 Bft)
13.09.2017 01:57 11,8 C 91 % 1001,2 hPa 0,0 l/m 7,2 km/h (2 Bft) S-SO 167 0 min 0 W/m 10,4 C 11,3 C 17,7 km/h (3 Bft)
13.09.2017 02:00 11,8 C 91 % 1001,1 hPa 0,0 l/m 9,2 km/h (2 Bft) S-SW 200 0 min 0 W/m 10,4 C 10,0 C 17,7 km/h (3 Bft)
13.09.2017 02:03 11,8 C 91 % 1001,1 hPa 0,0 l/m 8,5 km/h (2 Bft) S 175 0 min 0 W/m 10,4 C 10,4 C 17,7 km/h (3 Bft)
13.09.2017 02:06 11,8 C 91 % 1001,0 hPa 0,0 l/m 7,9 km/h (2 Bft) SW 224 0 min 0 W/m 10,4 C 10,8 C 14,5 km/h (3 Bft)
13.09.2017 02:09 11,8 C 91 % 1001,0 hPa 0,0 l/m 7,5 km/h (2 Bft) S-SW 196 0 min 0 W/m 10,4 C 11,1 C 14,5 km/h (3 Bft)
13.09.2017 02:12 11,8 C 91 % 1000,9 hPa 0,0 l/m 9,3 km/h (2 Bft) SW 234 0 min 0 W/m 10,4 C 10,0 C 19,3 km/h (3 Bft)
13.09.2017 02:15 11,8 C 91 % 1000,8 hPa 0,0 l/m 8,1 km/h (2 Bft) S-SO 152 0 min 0 W/m 10,4 C 10,7 C 17,7 km/h (3 Bft)
13.09.2017 02:18 11,8 C 91 % 1000,7 hPa 0,0 l/m 8,8 km/h (2 Bft) S 169 0 min 0 W/m 10,4 C 10,3 C 16,1 km/h (3 Bft)
13.09.2017 02:21 11,7 C 91 % 1000,7 hPa 0,0 l/m 8,7 km/h (2 Bft) S-SW 192 0 min 0 W/m 10,3 C 10,2 C 16,1 km/h (3 Bft)
13.09.2017 02:24 11,7 C 91 % 1000,6 hPa 0,0 l/m 8,6 km/h (2 Bft) S-SO 157 0 min 0 W/m 10,3 C 10,3 C 16,1 km/h (3 Bft)
13.09.2017 02:27 11,7 C 91 % 1000,5 hPa 0,0 l/m 9,5 km/h (2 Bft) S-SO 155 0 min 0 W/m 10,3 C 9,7 C 16,1 km/h (3 Bft)
13.09.2017 02:30 11,7 C 91 % 1000,5 hPa 0,0 l/m 8,6 km/h (2 Bft) S 181 0 min 0 W/m 10,3 C 10,3 C 19,3 km/h (3 Bft)
13.09.2017 02:33 11,7 C 91 % 1000,4 hPa 0,0 l/m 10,0 km/h (2 Bft) S 184 0 min 0 W/m 10,3 C 9,5 C 20,9 km/h (4 Bft)
13.09.2017 02:36 11,7 C 91 % 1000,4 hPa 0,0 l/m 8,2 km/h (2 Bft) S-SW 198 0 min 0 W/m 10,3 C 10,5 C 20,9 km/h (4 Bft)
13.09.2017 02:39 11,7 C 91 % 1000,3 hPa 0,0 l/m 7,1 km/h (2 Bft) S 190 0 min 0 W/m 10,3 C 11,2 C 12,9 km/h (3 Bft)
13.09.2017 02:42 11,7 C 91 % 1000,3 hPa 0,0 l/m 9,0 km/h (2 Bft) SW 225 0 min 0 W/m 10,3 C 10,0 C 17,7 km/h (3 Bft)
13.09.2017 02:45 11,6 C 91 % 1000,3 hPa 0,0 l/m 9,1 km/h (2 Bft) S 186 0 min 0 W/m 10,2 C 9,9 C 20,9 km/h (4 Bft)
13.09.2017 02:48 11,6 C 91 % 1000,3 hPa 0,0 l/m 7,6 km/h (2 Bft) S 176 0 min 0 W/m 10,2 C 10,8 C 17,7 km/h (3 Bft)
13.09.2017 02:51 11,6 C 91 % 1000,2 hPa 0,0 l/m 9,4 km/h (2 Bft) S-SW 213 0 min 0 W/m 10,2 C 9,7 C 14,5 km/h (3 Bft)
13.09.2017 02:54 11,7 C 91 % 1000,2 hPa 0,0 l/m 11,9 km/h (2 Bft) S-SW 207 0 min 0 W/m 10,3 C 8,5 C 20,9 km/h (4 Bft)
13.09.2017 02:57 11,7 C 91 % 1000,1 hPa 0,0 l/m 10,1 km/h (2 Bft) S-SO 164 0 min 0 W/m 10,3 C 9,4 C 16,1 km/h (3 Bft)
13.09.2017 03:00 11,7 C 91 % 1000,0 hPa 0,0 l/m 10,0 km/h (2 Bft) S 173 0 min 0 W/m 10,3 C 9,5 C 17,7 km/h (3 Bft)
13.09.2017 03:03 11,7 C 91 % 1000,0 hPa 0,0 l/m 8,2 km/h (2 Bft) S 190 0 min 0 W/m 10,3 C 10,5 C 14,5 km/h (3 Bft)
13.09.2017 03:06 11,7 C 91 % 1000,0 hPa 0,0 l/m 8,2 km/h (2 Bft) S-SO 166 0 min 0 W/m 10,3 C 10,5 C 16,1 km/h (3 Bft)
13.09.2017 03:09 11,7 C 91 % 999,9 hPa 0,0 l/m 8,5 km/h (2 Bft) S 189 0 min 0 W/m 10,3 C 10,3 C 16,1 km/h (3 Bft)
13.09.2017 03:12 11,7 C 91 % 999,9 hPa 0,0 l/m 10,6 km/h (2 Bft) S 181 0 min 0 W/m 10,3 C 9,2 C 17,7 km/h (3 Bft)
13.09.2017 03:15 11,7 C 91 % 999,8 hPa 0,0 l/m 8,6 km/h (2 Bft) S-SO 163 0 min 0 W/m 10,3 C 10,3 C 17,7 km/h (3 Bft)
13.09.2017 03:18 11,7 C 91 % 999,6 hPa 0,0 l/m 9,9 km/h (2 Bft) S-SO 159 0 min 0 W/m 10,3 C 9,5 C 16,1 km/h (3 Bft)
13.09.2017 03:21 11,7 C 91 % 999,6 hPa 0,0 l/m 9,7 km/h (2 Bft) S 173 0 min 0 W/m 10,3 C 9,6 C 16,1 km/h (3 Bft)
13.09.2017 03:24 11,7 C 91 % 999,5 hPa 0,0 l/m 9,5 km/h (2 Bft) S-SO 161 0 min 0 W/m 10,3 C 9,7 C 19,3 km/h (3 Bft)
13.09.2017 03:27 11,7 C 90 % 999,4 hPa 0,0 l/m 9,3 km/h (2 Bft) O-SO 115 0 min 0 W/m 10,1 C 9,9 C 14,5 km/h (3 Bft)
13.09.2017 03:30 11,7 C 90 % 999,3 hPa 0,0 l/m 8,8 km/h (2 Bft) S 171 0 min 0 W/m 10,1 C 10,1 C 14,5 km/h (3 Bft)
13.09.2017 03:33 11,7 C 90 % 999,2 hPa 0,0 l/m 7,7 km/h (2 Bft) S-SO 167 0 min 0 W/m 10,1 C 10,8 C 16,1 km/h (3 Bft)
13.09.2017 03:36 11,7 C 90 % 999,3 hPa 0,0 l/m 10,3 km/h (2 Bft) S-SO 167 0 min 0 W/m 10,1 C 9,3 C 17,7 km/h (3 Bft)
13.09.2017 03:39 11,7 C 90 % 999,4 hPa 0,0 l/m 11,7 km/h (2 Bft) S 180 0 min 0 W/m 10,1 C 8,6 C 19,3 km/h (3 Bft)
13.09.2017 03:42 11,7 C 90 % 999,3 hPa 0,0 l/m 10,5 km/h (2 Bft) S-SO 149 0 min 0 W/m 10,1 C 9,2 C 19,3 km/h (3 Bft)
13.09.2017 03:45 11,7 C 90 % 999,2 hPa 0,0 l/m 10,7 km/h (2 Bft) S-SO 168 0 min 0 W/m 10,1 C 9,1 C 19,3 km/h (3 Bft)
13.09.2017 03:48 11,7 C 90 % 999,0 hPa 0,0 l/m 9,5 km/h (2 Bft) S-SO 155 0 min 0 W/m 10,1 C 9,7 C 16,1 km/h (3 Bft)
13.09.2017 03:51 11,7 C 90 % 998,8 hPa 0,0 l/m 9,2 km/h (2 Bft) S-SO 158 0 min 0 W/m 10,1 C 9,9 C 17,7 km/h (3 Bft)
13.09.2017 03:54 11,7 C 90 % 998,7 hPa 0,0 l/m 8,1 km/h (2 Bft) S-SO 168 0 min 0 W/m 10,1 C 10,6 C 16,1 km/h (3 Bft)
13.09.2017 03:57 11,7 C 90 % 998,6 hPa 0,0 l/m 11,4 km/h (2 Bft) S-SO 152 0 min 0 W/m 10,1 C 8,8 C 20,9 km/h (4 Bft)
13.09.2017 04:00 11,7 C 89 % 998,4 hPa 0,0 l/m 9,6 km/h (2 Bft) SO 143 0 min 0 W/m 9,9 C 9,7 C 17,7 km/h (3 Bft)
13.09.2017 04:03 11,7 C 89 % 998,4 hPa 0,0 l/m 11,1 km/h (2 Bft) S-SO 163 0 min 0 W/m 9,9 C 8,9 C 17,7 km/h (3 Bft)
13.09.2017 04:06 11,7 C 89 % 998,3 hPa 0,0 l/m 11,3 km/h (2 Bft) S-SW 203 0 min 0 W/m 9,9 C 8,8 C 22,5 km/h (4 Bft)
13.09.2017 04:09 11,7 C 89 % 998,2 hPa 0,0 l/m 9,1 km/h (2 Bft) S-SO 157 0 min 0 W/m 9,9 C 10,0 C 16,1 km/h (3 Bft)
13.09.2017 04:12 11,7 C 89 % 998,1 hPa 0,0 l/m 9,1 km/h (2 Bft) S 169 0 min 0 W/m 9,9 C 10,0 C 19,3 km/h (3 Bft)
13.09.2017 04:15 11,7 C 89 % 997,9 hPa 0,0 l/m 12,0 km/h (2 Bft) SO 144 0 min 0 W/m 9,9 C 8,5 C 20,9 km/h (4 Bft)
13.09.2017 04:18 11,7 C 89 % 997,9 hPa 0,0 l/m 11,4 km/h (2 Bft) S-SO 163 0 min 0 W/m 9,9 C 8,8 C 20,9 km/h (4 Bft)
13.09.2017 04:21 11,7 C 89 % 997,8 hPa 0,0 l/m 12,8 km/h (3 Bft) O-SO 105 0 min 0 W/m 9,9 C 8,1 C 24,1 km/h (4 Bft)
13.09.2017 04:24 11,7 C 89 % 997,8 hPa 0,0 l/m 11,6 km/h (2 Bft) S-SO 165 0 min 0 W/m 9,9 C 8,7 C 20,9 km/h (4 Bft)
13.09.2017 04:27 11,7 C 89 % 997,8 hPa 0,0 l/m 8,3 km/h (2 Bft) SO 140 0 min 0 W/m 9,9 C 10,5 C 14,5 km/h (3 Bft)
13.09.2017 04:30 11,7 C 89 % 997,8 hPa 0,0 l/m 8,3 km/h (2 Bft) S 180 0 min 0 W/m 9,9 C 10,5 C 14,5 km/h (3 Bft)
13.09.2017 04:33 11,7 C 89 % 997,7 hPa 0,0 l/m 10,4 km/h (2 Bft) O-SO 117 0 min 0 W/m 9,9 C 9,3 C 19,3 km/h (3 Bft)
13.09.2017 04:36 11,7 C 89 % 997,7 hPa 0,0 l/m 10,8 km/h (2 Bft) S 185 0 min 0 W/m 9,9 C 9,1 C 17,7 km/h (3 Bft)
13.09.2017 04:39 11,7 C 90 % 997,6 hPa 0,0 l/m 10,4 km/h (2 Bft) S 185 0 min 0 W/m 10,1 C 9,3 C 19,3 km/h (3 Bft)
13.09.2017 04:42 11,7 C 90 % 997,6 hPa 0,0 l/m 11,9 km/h (2 Bft) S 175 0 min 0 W/m 10,1 C 8,5 C 19,3 km/h (3 Bft)
13.09.2017 04:45 11,7 C 90 % 997,6 hPa 0,0 l/m 10,1 km/h (2 Bft) S-SW 196 0 min 0 W/m 10,1 C 9,4 C 19,3 km/h (3 Bft)
13.09.2017 04:48 11,8 C 90 % 997,4 hPa 0,0 l/m 8,6 km/h (2 Bft) S-SO 149 0 min 0 W/m 10,2 C 10,4 C 14,5 km/h (3 Bft)
13.09.2017 04:51 11,8 C 90 % 997,4 hPa 0,0 l/m 8,2 km/h (2 Bft) S-SO 153 0 min 0 W/m 10,2 C 10,6 C 12,9 km/h (3 Bft)
13.09.2017 04:54 11,8 C 90 % 997,3 hPa 0,0 l/m 10,3 km/h (2 Bft) S-SO 152 0 min 0 W/m 10,2 C 9,4 C 17,7 km/h (3 Bft)
13.09.2017 04:57 11,8 C 90 % 997,2 hPa 0,0 l/m 11,0 km/h (2 Bft) S-SW 194 0 min 0 W/m 10,2 C 9,1 C 20,9 km/h (4 Bft)
13.09.2017 05:00 11,8 C 91 % 997,1 hPa 0,0 l/m 10,2 km/h (2 Bft) S 180 0 min 0 W/m 10,4 C 9,5 C 19,3 km/h (3 Bft)
13.09.2017 05:03 11,8 C 91 % 996,9 hPa 0,0 l/m 13,1 km/h (3 Bft) S-SW 213 0 min 0 W/m 10,4 C 8,1 C 25,7 km/h (4 Bft)
13.09.2017 05:06 11,8 C 91 % 996,9 hPa 0,0 l/m 11,7 km/h (2 Bft) SO 142 0 min 0 W/m 10,4 C 8,7 C 20,9 km/h (4 Bft)
13.09.2017 05:09 11,8 C 91 % 996,8 hPa 0,0 l/m 11,0 km/h (2 Bft) SO 142 0 min 0 W/m 10,4 C 9,1 C 17,7 km/h (3 Bft)
13.09.2017 05:12 11,8 C 91 % 996,5 hPa 0,2 l/m 9,7 km/h (2 Bft) S 187 0 min 0 W/m 10,4 C 9,7 C 17,7 km/h (3 Bft)
13.09.2017 05:15 11,8 C 91 % 996,5 hPa 0,0 l/m 11,2 km/h (2 Bft) S-SO 155 0 min 0 W/m 10,4 C 9,0 C 27,4 km/h (5 Bft)
13.09.2017 05:18 11,8 C 91 % 996,4 hPa 0,0 l/m 13,5 km/h (3 Bft) S-SO 159 0 min 0 W/m 10,4 C 7,9 C 24,1 km/h (4 Bft)
13.09.2017 05:21 11,8 C 92 % 996,4 hPa 0,0 l/m 14,3 km/h (3 Bft) S 184 0 min 0 W/m 10,5 C 7,6 C 30,6 km/h (5 Bft)
13.09.2017 05:24 11,8 C 92 % 996,2 hPa 0,0 l/m 10,9 km/h (2 Bft) S 172 0 min 0 W/m 10,5 C 9,1 C 20,9 km/h (4 Bft)
13.09.2017 05:27 11,8 C 92 % 996,1 hPa 0,2 l/m 10,3 km/h (2 Bft) S-SW 199 0 min 0 W/m 10,5 C 9,4 C 16,1 km/h (3 Bft)
13.09.2017 05:30 11,8 C 92 % 996,1 hPa 0,0 l/m 10,0 km/h (2 Bft) S 170 0 min 0 W/m 10,5 C 9,6 C 17,7 km/h (3 Bft)
13.09.2017 05:33 11,8 C 92 % 996,0 hPa 0,0 l/m 10,6 km/h (2 Bft) SO 137 0 min 0 W/m 10,5 C 9,3 C 19,3 km/h (3 Bft)
13.09.2017 05:36 11,8 C 92 % 995,9 hPa 0,0 l/m 10,0 km/h (2 Bft) S-SO 151 0 min 0 W/m 10,5 C 9,6 C 19,3 km/h (3 Bft)
13.09.2017 05:39 11,7 C 93 % 995,9 hPa 0,0 l/m 7,9 km/h (2 Bft) S-SO 153 0 min 0 W/m 10,6 C 10,7 C 14,5 km/h (3 Bft)
13.09.2017 05:42 11,7 C 93 % 995,7 hPa 0,2 l/m 7,2 km/h (2 Bft) O-SO 111 0 min 0 W/m 10,6 C 11,2 C 12,9 km/h (3 Bft)
13.09.2017 05:45 11,7 C 93 % 995,4 hPa 0,0 l/m 11,0 km/h (2 Bft) S-SO 165 0 min 0 W/m 10,6 C 9,0 C 19,3 km/h (3 Bft)
13.09.2017 05:48 11,7 C 93 % 995,4 hPa 0,0 l/m 10,1 km/h (2 Bft) S 184 0 min 0 W/m 10,6 C 9,4 C 20,9 km/h (4 Bft)
13.09.2017 05:51 11,7 C 93 % 995,3 hPa 0,0 l/m 10,3 km/h (2 Bft) SO 142 0 min 0 W/m 10,6 C 9,3 C 17,7 km/h (3 Bft)
13.09.2017 05:54 11,6 C 93 % 995,3 hPa 0,0 l/m 9,6 km/h (2 Bft) SO 146 0 min 0 W/m 10,5 C 9,6 C 19,3 km/h (3 Bft)
13.09.2017 05:57 11,6 C 93 % 995,1 hPa 0,0 l/m 11,4 km/h (2 Bft) SO 134 0 min 0 W/m 10,5 C 8,6 C 27,4 km/h (5 Bft)
13.09.2017 06:00 11,6 C 93 % 995,0 hPa 0,0 l/m 12,3 km/h (2 Bft) S-SO 165 0 min 0 W/m 10,5 C 8,2 C 20,9 km/h (4 Bft)
13.09.2017 06:03 11,6 C 93 % 994,9 hPa 0,0 l/m 11,5 km/h (2 Bft) S-SO 149 0 min 0 W/m 10,5 C 8,6 C 20,9 km/h (4 Bft)
13.09.2017 06:06 11,6 C 93 % 994,8 hPa 0,0 l/m 12,9 km/h (3 Bft) S-SO 167 0 min 0 W/m 10,5 C 7,9 C 19,3 km/h (3 Bft)
13.09.2017 06:09 11,6 C 93 % 994,6 hPa 0,0 l/m 12,2 km/h (2 Bft) S 178 0 min 0 W/m 10,5 C 8,3 C 27,4 km/h (5 Bft)
13.09.2017 06:12 11,6 C 94 % 994,6 hPa 0,2 l/m 11,3 km/h (2 Bft) SO 134 0 min 0 W/m 10,7 C 8,7 C 19,3 km/h (3 Bft)
13.09.2017 06:15 11,6 C 94 % 994,5 hPa 0,0 l/m 12,6 km/h (3 Bft) SO 143 0 min 0 W/m 10,7 C 8,1 C 20,9 km/h (4 Bft)
13.09.2017 06:18 11,6 C 94 % 994,4 hPa 0,0 l/m 10,2 km/h (2 Bft) SO 137 0 min 0 W/m 10,7 C 9,3 C 17,7 km/h (3 Bft)
13.09.2017 06:21 11,6 C 94 % 994,1 hPa 0,0 l/m 9,9 km/h (2 Bft) SO 128 0 min 0 W/m 10,7 C 9,4 C 16,1 km/h (3 Bft)
13.09.2017 06:24 11,5 C 94 % 994,0 hPa 0,0 l/m 10,1 km/h (2 Bft) S 176 0 min 0 W/m 10,6 C 9,2 C 20,9 km/h (4 Bft)
13.09.2017 06:27 11,5 C 94 % 993,7 hPa 0,0 l/m 10,0 km/h (2 Bft) SO 138 0 min 0 W/m 10,6 C 9,3 C 17,7 km/h (3 Bft)
13.09.2017 06:30 11,5 C 94 % 993,7 hPa 0,0 l/m 13,0 km/h (3 Bft) O 84 0 min 0 W/m 10,6 C 7,8 C 22,5 km/h (4 Bft)
13.09.2017 06:33 11,5 C 94 % 993,5 hPa 0,0 l/m 12,3 km/h (2 Bft) SO 144 0 min 0 W/m 10,6 C 8,1 C 22,5 km/h (4 Bft)
13.09.2017 06:36 11,5 C 94 % 993,2 hPa 0,0 l/m 10,4 km/h (2 Bft) SO 135 0 min 0 W/m 10,6 C 9,0 C 22,5 km/h (4 Bft)
13.09.2017 06:39 11,5 C 94 % 993,2 hPa 0,0 l/m 13,2 km/h (3 Bft) O-SO 106 0 min 0 W/m 10,6 C 7,7 C 24,1 km/h (4 Bft)
13.09.2017 06:42 11,4 C 94 % 993,1 hPa 0,0 l/m 13,0 km/h (3 Bft) SO 142 0 min 0 W/m 10,5 C 7,7 C 24,1 km/h (4 Bft)
13.09.2017 06:45 11,4 C 94 % 993,0 hPa 0,0 l/m 12,6 km/h (3 Bft) S 169 0 min 0 W/m 10,5 C 7,8 C 22,5 km/h (4 Bft)
13.09.2017 06:48 11,4 C 94 % 993,0 hPa 0,0 l/m 11,6 km/h (2 Bft) O-SO 115 0 min 0 W/m 10,5 C 8,3 C 20,9 km/h (4 Bft)
13.09.2017 06:51 11,4 C 94 % 992,8 hPa 0,0 l/m 10,8 km/h (2 Bft) S-SO 153 0 min 0 W/m 10,5 C 8,7 C 22,5 km/h (4 Bft)
13.09.2017 06:54 11,4 C 94 % 992,7 hPa 0,0 l/m 13,6 km/h (3 Bft) S 172 0 min 0 W/m 10,5 C 7,4 C 24,1 km/h (4 Bft)
13.09.2017 06:57 11,4 C 94 % 992,5 hPa 0,0 l/m 8,8 km/h (2 Bft) O 80 0 min 0 W/m 10,5 C 9,8 C 16,1 km/h (3 Bft)
13.09.2017 07:00 11,4 C 94 % 992,4 hPa 0,0 l/m 13,1 km/h (3 Bft) SO 130 0 min 0 W/m 10,5 C 7,6 C 24,1 km/h (4 Bft)
13.09.2017 07:03 11,4 C 94 % 992,2 hPa 0,2 l/m 11,9 km/h (2 Bft) S 175 0 min 0 W/m 10,5 C 8,2 C 24,1 km/h (4 Bft)
13.09.2017 07:06 11,4 C 94 % 992,0 hPa 0,0 l/m 15,4 km/h (3 Bft) S-SO 153 0 min 0 W/m 10,5 C 6,7 C 27,4 km/h (5 Bft)
13.09.2017 07:09 11,4 C 95 % 991,9 hPa 0,2 l/m 13,1 km/h (3 Bft) S-SO 164 0 min 0 W/m 10,6 C 7,6 C 24,1 km/h (4 Bft)
13.09.2017 07:12 11,4 C 95 % 991,8 hPa 0,2 l/m 12,1 km/h (2 Bft) S-SO 156 0 min 0 W/m 10,6 C 8,1 C 20,9 km/h (4 Bft)
13.09.2017 07:15 11,4 C 95 % 991,5 hPa 0,0 l/m 11,7 km/h (2 Bft) SO 143 0 min 0 W/m 10,6 C 8,3 C 20,9 km/h (4 Bft)
13.09.2017 07:18 11,3 C 95 % 991,5 hPa 0,2 l/m 12,6 km/h (3 Bft) S-SO 150 0 min 0 W/m 10,5 C 7,7 C 30,6 km/h (5 Bft)
13.09.2017 07:21 11,3 C 94 % 991,4 hPa 0,2 l/m 14,7 km/h (3 Bft) SO 146 0 min 0 W/m 10,4 C 6,8 C 33,8 km/h (5 Bft)
13.09.2017 07:24 11,3 C 95 % 991,4 hPa 0,0 l/m 15,2 km/h (3 Bft) O 90 0 min 0 W/m 10,5 C 6,6 C 27,4 km/h (5 Bft)
13.09.2017 07:27 11,3 C 95 % 991,3 hPa 0,2 l/m 16,4 km/h (3 Bft) S 172 0 min 0 W/m 10,5 C 6,2 C 32,2 km/h (5 Bft)
13.09.2017 07:30 11,3 C 95 % 991,1 hPa 0,2 l/m 13,0 km/h (3 Bft) S-SO 159 0 min 0 W/m 10,5 C 7,6 C 20,9 km/h (4 Bft)
13.09.2017 07:33 11,3 C 95 % 991,1 hPa 0,2 l/m 16,8 km/h (3 Bft) O-SO 118 0 min 0 W/m 10,5 C 6,0 C 35,4 km/h (5 Bft)
13.09.2017 07:36 11,3 C 95 % 990,9 hPa 0,0 l/m 16,5 km/h (3 Bft) S 180 0 min 7 W/m 10,5 C 6,1 C 33,8 km/h (5 Bft)
13.09.2017 07:39 11,3 C 95 % 990,8 hPa 0,2 l/m 14,2 km/h (3 Bft) S 189 0 min 5 W/m 10,5 C 7,0 C 30,6 km/h (5 Bft)
13.09.2017 07:42 11,3 C 95 % 990,7 hPa 0,0 l/m 14,7 km/h (3 Bft) SO 137 0 min 5 W/m 10,5 C 6,8 C 30,6 km/h (5 Bft)
13.09.2017 07:45 11,3 C 95 % 990,5 hPa 0,0 l/m 16,1 km/h (3 Bft) S-SO 168 0 min 0 W/m 10,5 C 6,3 C 29,0 km/h (5 Bft)
13.09.2017 07:48 11,3 C 95 % 990,4 hPa 0,0 l/m 14,0 km/h (3 Bft) O-SO 109 0 min 5 W/m 10,5 C 7,1 C 30,6 km/h (5 Bft)
13.09.2017 07:51 11,3 C 95 % 990,3 hPa 0,2 l/m 15,0 km/h (3 Bft) S-SO 167 0 min 7 W/m 10,5 C 6,7 C 30,6 km/h (5 Bft)
13.09.2017 07:54 11,3 C 95 % 990,1 hPa 0,0 l/m 15,3 km/h (3 Bft) S 176 0 min 7 W/m 10,5 C 6,6 C 27,4 km/h (5 Bft)
13.09.2017 07:57 11,3 C 95 % 990,0 hPa 0,0 l/m 13,6 km/h (3 Bft) S-SO 161 0 min 5 W/m 10,5 C 7,3 C 29,0 km/h (5 Bft)
13.09.2017 08:00 11,3 C 95 % 990,0 hPa 0,0 l/m 15,6 km/h (3 Bft) S-SO 148 0 min 7 W/m 10,5 C 6,5 C 27,4 km/h (5 Bft)
13.09.2017 08:03 11,3 C 95 % 989,7 hPa 0,0 l/m 14,7 km/h (3 Bft) O-SO 109 0 min 0 W/m 10,5 C 6,8 C 29,0 km/h (5 Bft)
13.09.2017 08:06 11,3 C 95 % 989,8 hPa 0,0 l/m 14,6 km/h (3 Bft) S-SO 153 0 min 5 W/m 10,5 C 6,9 C 24,1 km/h (4 Bft)
13.09.2017 08:09 11,3 C 95 % 989,6 hPa 0,0 l/m 13,5 km/h (3 Bft) S 180 0 min 11 W/m 10,5 C 7,3 C 27,4 km/h (5 Bft)
13.09.2017 08:12 11,3 C 95 % 989,6 hPa 0,2 l/m 15,7 km/h (3 Bft) S-SO 150 0 min 16 W/m 10,5 C 6,4 C 29,0 km/h (5 Bft)
13.09.2017 08:15 11,3 C 95 % 989,5 hPa 0,0 l/m 14,3 km/h (3 Bft) S-SO 157 0 min 30 W/m 10,5 C 7,0 C 25,7 km/h (4 Bft)
13.09.2017 08:18 11,4 C 95 % 989,3 hPa 0,0 l/m 10,3 km/h (2 Bft) S 180 0 min 16 W/m 10,6 C 9,0 C 17,7 km/h (3 Bft)
13.09.2017 08:21 11,4 C 95 % 989,3 hPa 0,0 l/m 13,1 km/h (3 Bft) S-SO 154 0 min 9 W/m 10,6 C 7,6 C 29,0 km/h (5 Bft)
13.09.2017 08:24 11,4 C 95 % 989,2 hPa 0,0 l/m 16,8 km/h (3 Bft) S 176 0 min 9 W/m 10,6 C 6,2 C 38,6 km/h (6 Bft)
13.09.2017 08:27 11,4 C 95 % 989,0 hPa 0,0 l/m 14,6 km/h (3 Bft) SO 133 0 min 9 W/m 10,6 C 7,0 C 30,6 km/h (5 Bft)
13.09.2017 08:30 11,4 C 96 % 989,0 hPa 0,0 l/m 12,4 km/h (2 Bft) S 185 0 min 11 W/m 10,8 C 7,9 C 25,7 km/h (4 Bft)
13.09.2017 08:33 11,4 C 96 % 988,9 hPa 0,0 l/m 15,3 km/h (3 Bft) SO 132 0 min 14 W/m 10,8 C 6,7 C 35,4 km/h (5 Bft)
13.09.2017 08:36 11,4 C 96 % 988,8 hPa 0,0 l/m 13,3 km/h (3 Bft) S-SW 207 0 min 14 W/m 10,8 C 7,5 C 24,1 km/h (4 Bft)
13.09.2017 08:39 11,5 C 96 % 988,7 hPa 0,0 l/m 14,8 km/h (3 Bft) S-SO 160 0 min 9 W/m 10,9 C 7,0 C 27,4 km/h (5 Bft)
13.09.2017 08:42 11,5 C 96 % 988,6 hPa 0,0 l/m 17,5 km/h (3 Bft) O-SO 122 0 min 16 W/m 10,9 C 6,0 C 30,6 km/h (5 Bft)
13.09.2017 08:45 11,5 C 96 % 988,6 hPa 0,0 l/m 15,8 km/h (3 Bft) O-SO 120 0 min 23 W/m 10,9 C 6,6 C 32,2 km/h (5 Bft)
13.09.2017 08:48 11,6 C 96 % 988,4 hPa 0,0 l/m 14,2 km/h (3 Bft) S-SW 197 0 min 23 W/m 11,0 C 7,4 C 25,7 km/h (4 Bft)
13.09.2017 08:51 11,6 C 96 % 988,4 hPa 0,0 l/m 14,3 km/h (3 Bft) S 178 0 min 23 W/m 11,0 C 7,4 C 27,4 km/h (5 Bft)
13.09.2017 08:54 11,6 C 96 % 988,4 hPa 0,0 l/m 19,7 km/h (3 Bft) S-SW 208 0 min 25 W/m 11,0 C 5,4 C 30,6 km/h (5 Bft)
13.09.2017 08:57 11,6 C 96 % 988,0 hPa 0,0 l/m 16,1 km/h (3 Bft) S-SO 165 0 min 28 W/m 11,0 C 6,7 C 27,4 km/h (5 Bft)
13.09.2017 09:00 11,7 C 96 % 988,0 hPa 0,0 l/m 16,2 km/h (3 Bft) S 179 0 min 37 W/m 11,1 C 6,7 C 30,6 km/h (5 Bft)
13.09.2017 09:03 11,7 C 96 % 987,9 hPa 0,0 l/m 15,6 km/h (3 Bft) S 179 0 min 42 W/m 11,1 C 7,0 C 27,4 km/h (5 Bft)
13.09.2017 09:06 11,8 C 96 % 987,9 hPa 0,0 l/m 15,6 km/h (3 Bft) S-SO 165 0 min 46 W/m 11,2 C 7,1 C 29,0 km/h (5 Bft)
13.09.2017 09:09 11,9 C 96 % 987,8 hPa 0,0 l/m 17,4 km/h (3 Bft) S-SO 155 0 min 54 W/m 11,3 C 6,6 C 30,6 km/h (5 Bft)
13.09.2017 09:12 11,9 C 96 % 987,7 hPa 0,2 l/m 16,3 km/h (3 Bft) S 176 0 min 47 W/m 11,3 C 7,0 C 32,2 km/h (5 Bft)
13.09.2017 09:15 12,0 C 96 % 987,7 hPa 0,0 l/m 18,6 km/h (3 Bft) SO 146 0 min 56 W/m 11,4 C 6,3 C 41,8 km/h (6 Bft)
13.09.2017 09:18 12,1 C 96 % 987,6 hPa 0,0 l/m 17,4 km/h (3 Bft) S-SW 204 0 min 47 W/m 11,5 C 6,8 C 30,6 km/h (5 Bft)
13.09.2017 09:21 12,1 C 96 % 987,5 hPa 0,0 l/m 16,1 km/h (3 Bft) S-SO 163 0 min 63 W/m 11,5 C 7,3 C 25,7 km/h (4 Bft)
13.09.2017 09:24 12,2 C 96 % 987,3 hPa 0,0 l/m 16,4 km/h (3 Bft) S-SO 162 0 min 84 W/m 11,6 C 7,3 C 29,0 km/h (5 Bft)
13.09.2017 09:27 12,3 C 96 % 987,2 hPa 0,0 l/m 12,6 km/h (3 Bft) S 178 0 min 56 W/m 11,7 C 8,9 C 22,5 km/h (4 Bft)
13.09.2017 09:30 12,3 C 96 % 987,3 hPa 0,0 l/m 11,7 km/h (2 Bft) S 174 0 min 44 W/m 11,7 C 9,3 C 32,2 km/h (5 Bft)
13.09.2017 09:33 12,3 C 96 % 987,1 hPa 0,0 l/m 12,4 km/h (2 Bft) S 188 0 min 35 W/m 11,7 C 9,0 C 27,4 km/h (5 Bft)
13.09.2017 09:36 12,4 C 96 % 986,9 hPa 0,0 l/m 14,0 km/h (3 Bft) S-SO 160 0 min 40 W/m 11,8 C 8,4 C 27,4 km/h (5 Bft)
13.09.2017 09:39 12,4 C 96 % 986,9 hPa 0,2 l/m 19,2 km/h (3 Bft) W-SW 255 0 min 54 W/m 11,8 C 6,6 C 32,2 km/h (5 Bft)
13.09.2017 09:42 12,4 C 96 % 986,7 hPa 0,0 l/m 14,2 km/h (3 Bft) S-SW 200 0 min 56 W/m 11,8 C 8,4 C 27,4 km/h (5 Bft)
13.09.2017 09:45 12,4 C 96 % 986,8 hPa 0,0 l/m 17,8 km/h (3 Bft) S-SO 150 0 min 58 W/m 11,8 C 7,1 C 30,6 km/h (5 Bft)
13.09.2017 09:48 12,5 C 96 % 986,8 hPa 0,0 l/m 15,5 km/h (3 Bft) S 173 0 min 76 W/m 11,9 C 8,0 C 35,4 km/h (5 Bft)
13.09.2017 09:51 12,5 C 96 % 986,7 hPa 0,2 l/m 15,4 km/h (3 Bft) S-SW 206 0 min 67 W/m 11,9 C 8,0 C 25,7 km/h (4 Bft)
13.09.2017 09:54 12,6 C 96 % 986,6 hPa 0,0 l/m 15,5 km/h (3 Bft) S 183 0 min 72 W/m 12,0 C 8,1 C 35,4 km/h (5 Bft)
13.09.2017 09:57 12,6 C 96 % 986,6 hPa 0,0 l/m 18,1 km/h (3 Bft) S 171 0 min 70 W/m 12,0 C 7,2 C 33,8 km/h (5 Bft)
13.09.2017 10:00 12,6 C 96 % 986,4 hPa 0,0 l/m 14,9 km/h (3 Bft) S 175 0 min 90 W/m 12,0 C 8,3 C 27,4 km/h (5 Bft)
13.09.2017 10:03 12,7 C 96 % 986,3 hPa 0,0 l/m 13,7 km/h (3 Bft) S 180 0 min 134 W/m 12,1 C 8,9 C 24,1 km/h (4 Bft)
13.09.2017 10:06 12,8 C 97 % 986,4 hPa 0,0 l/m 16,5 km/h (3 Bft) SW 223 0 min 113 W/m 12,3 C 8,0 C 37,0 km/h (5 Bft)
13.09.2017 10:09 12,9 C 96 % 986,3 hPa 0,0 l/m 17,5 km/h (3 Bft) SO 142 0 min 172 W/m 12,3 C 7,8 C 37,0 km/h (5 Bft)
13.09.2017 10:12 13,0 C 96 % 986,1 hPa 0,0 l/m 18,9 km/h (3 Bft) SO 143 0 min 113 W/m 12,4 C 7,5 C 32,2 km/h (5 Bft)
13.09.2017 10:15 13,1 C 96 % 986,2 hPa 0,0 l/m 17,7 km/h (3 Bft) SW 236 0 min 93 W/m 12,5 C 8,0 C 27,4 km/h (5 Bft)
13.09.2017 10:18 13,1 C 96 % 986,1 hPa 0,0 l/m 19,2 km/h (3 Bft) S 184 0 min 100 W/m 12,5 C 7,5 C 32,2 km/h (5 Bft)
13.09.2017 10:21 13,1 C 96 % 986,1 hPa 0,0 l/m 19,4 km/h (3 Bft) S-SO 153 0 min 113 W/m 12,5 C 7,5 C 33,8 km/h (5 Bft)
13.09.2017 10:24 13,2 C 96 % 986,1 hPa 0,0 l/m 18,9 km/h (3 Bft) S 186 0 min 125 W/m 12,6 C 7,7 C 41,8 km/h (6 Bft)
13.09.2017 10:27 13,2 C 96 % 986,2 hPa 0,0 l/m 16,0 km/h (3 Bft) S-SW 210 0 min 160 W/m 12,6 C 8,7 C 25,7 km/h (4 Bft)
13.09.2017 10:30 13,3 C 96 % 986,0 hPa 0,0 l/m 20,9 km/h (4 Bft) S 169 0 min 123 W/m 12,7 C 7,3 C 40,2 km/h (6 Bft)
13.09.2017 10:33 13,4 C 96 % 985,9 hPa 0,0 l/m 18,9 km/h (3 Bft) SW 223 0 min 88 W/m 12,8 C 8,0 C 41,8 km/h (6 Bft)
13.09.2017 10:36 13,4 C 96 % 986,0 hPa 0,0 l/m 18,4 km/h (3 Bft) SW 223 0 min 148 W/m 12,8 C 8,1 C 33,8 km/h (5 Bft)
13.09.2017 10:39 13,6 C 96 % 985,8 hPa 0,0 l/m 16,9 km/h (3 Bft) SW 234 0 min 90 W/m 13,0 C 8,9 C 35,4 km/h (5 Bft)
13.09.2017 10:42 13,6 C 96 % 985,9 hPa 0,0 l/m 22,6 km/h (4 Bft) SO 146 0 min 81 W/m 13,0 C 7,3 C 37,0 km/h (5 Bft)
13.09.2017 10:45 13,6 C 95 % 985,8 hPa 0,0 l/m 17,9 km/h (3 Bft) S-SW 202 0 min 60 W/m 12,8 C 8,5 C 33,8 km/h (5 Bft)
13.09.2017 10:48 13,5 C 95 % 985,8 hPa 0,0 l/m 15,3 km/h (3 Bft) S 180 0 min 53 W/m 12,7 C 9,3 C 29,0 km/h (5 Bft)
13.09.2017 10:51 13,5 C 95 % 985,6 hPa 0,2 l/m 15,0 km/h (3 Bft) O-SO 117 0 min 84 W/m 12,7 C 9,4 C 27,4 km/h (5 Bft)
13.09.2017 10:54 13,5 C 95 % 985,6 hPa 0,0 l/m 15,6 km/h (3 Bft) S-SO 155 0 min 51 W/m 12,7 C 9,2 C 29,0 km/h (5 Bft)
13.09.2017 10:57 13,6 C 95 % 985,5 hPa 0,0 l/m 16,3 km/h (3 Bft) S-SW 195 0 min 65 W/m 12,8 C 9,1 C 32,2 km/h (5 Bft)
13.09.2017 11:00 13,5 C 95 % 985,5 hPa 0,4 l/m 17,0 km/h (3 Bft) S 191 0 min 37 W/m 12,7 C 8,7 C 25,7 km/h (4 Bft)
13.09.2017 11:03 13,5 C 95 % 985,4 hPa 0,0 l/m 17,2 km/h (3 Bft) S 191 0 min 53 W/m 12,7 C 8,6 C 35,4 km/h (5 Bft)
13.09.2017 11:06 13,5 C 95 % 985,5 hPa 0,2 l/m 18,1 km/h (3 Bft) SW 231 0 min 63 W/m 12,7 C 8,4 C 32,2 km/h (5 Bft)
13.09.2017 11:09 13,6 C 95 % 985,6 hPa 0,0 l/m 20,0 km/h (4 Bft) W-SW 239 0 min 116 W/m 12,8 C 7,9 C 40,2 km/h (6 Bft)
13.09.2017 11:12 13,6 C 95 % 985,6 hPa 0,0 l/m 22,7 km/h (4 Bft) SW 226 0 min 74 W/m 12,8 C 7,2 C 37,0 km/h (5 Bft)
13.09.2017 11:15 13,6 C 96 % 985,6 hPa 0,0 l/m 19,7 km/h (3 Bft) SW 216 0 min 88 W/m 13,0 C 8,0 C 32,2 km/h (5 Bft)
13.09.2017 11:18 13,7 C 96 % 985,5 hPa 0,0 l/m 26,3 km/h (4 Bft) W-SW 238 0 min 88 W/m 13,1 C 6,6 C 49,9 km/h (7 Bft)
13.09.2017 11:21 13,7 C 95 % 985,6 hPa 0,0 l/m 23,5 km/h (4 Bft) S-SW 207 0 min 128 W/m 12,9 C 7,2 C 45,1 km/h (6 Bft)
13.09.2017 11:24 13,8 C 95 % 985,6 hPa 0,0 l/m 28,3 km/h (5 Bft) S-SW 209 0 min 76 W/m 13,0 C 6,3 C 51,5 km/h (7 Bft)
13.09.2017 11:27 13,8 C 95 % 985,5 hPa 0,2 l/m 27,1 km/h (5 Bft) SW 226 0 min 109 W/m 13,0 C 6,5 C 40,2 km/h (6 Bft)
13.09.2017 11:30 13,8 C 95 % 985,6 hPa 0,0 l/m 27,4 km/h (5 Bft) SW 229 0 min 107 W/m 13,0 C 6,5 C 45,1 km/h (6 Bft)
13.09.2017 11:33 13,8 C 95 % 985,8 hPa 0,2 l/m 27,1 km/h (5 Bft) W-SW 240 0 min 72 W/m 13,0 C 6,5 C 54,7 km/h (7 Bft)
13.09.2017 11:36 13,9 C 95 % 985,9 hPa 0,0 l/m 20,9 km/h (4 Bft) SW 232 0 min 220 W/m 13,1 C 8,1 C 35,4 km/h (5 Bft)
13.09.2017 11:39 14,0 C 95 % 985,8 hPa 0,2 l/m 23,6 km/h (4 Bft) SW 227 3 min 520 W/m 13,2 C 7,6 C 38,6 km/h (6 Bft)
13.09.2017 11:42 14,2 C 94 % 985,9 hPa 0,0 l/m 27,3 km/h (5 Bft) SW 219 3 min 520 W/m 13,2 C 7,1 C 56,3 km/h (7 Bft)
13.09.2017 11:45 14,3 C 93 % 985,9 hPa 0,0 l/m 28,8 km/h (5 Bft) SW 232 0 min 234 W/m 13,2 C 6,9 C 45,1 km/h (6 Bft)
13.09.2017 11:48 14,3 C 91 % 986,0 hPa 0,0 l/m 32,3 km/h (5 Bft) SW 218 0 min 148 W/m 12,8 C 6,3 C 51,5 km/h (7 Bft)
13.09.2017 11:51 14,3 C 90 % 986,0 hPa 0,0 l/m 29,3 km/h (5 Bft) W-SW 252 0 min 144 W/m 12,7 C 6,8 C 43,5 km/h (6 Bft)
13.09.2017 11:54 14,3 C 89 % 985,9 hPa 0,0 l/m 28,1 km/h (5 Bft) SW 227 0 min 225 W/m 12,5 C 7,0 C 38,6 km/h (6 Bft)
13.09.2017 11:57 14,3 C 88 % 985,9 hPa 0,0 l/m 31,6 km/h (5 Bft) SW 214 0 min 174 W/m 12,3 C 6,4 C 53,1 km/h (7 Bft)
13.09.2017 12:00 14,3 C 87 % 986,1 hPa 0,0 l/m 36,5 km/h (5 Bft) SW 228 0 min 199 W/m 12,2 C 5,7 C 57,9 km/h (7 Bft)
13.09.2017 12:03 14,2 C 86 % 986,0 hPa 0,0 l/m 32,8 km/h (5 Bft) SW 234 0 min 167 W/m 11,9 C 6,1 C 53,1 km/h (7 Bft)
13.09.2017 12:06 14,4 C 86 % 986,0 hPa 0,0 l/m 29,7 km/h (5 Bft) SW 226 3 min 608 W/m 12,1 C 6,9 C 46,7 km/h (6 Bft)
13.09.2017 12:09 14,5 C 84 % 986,0 hPa 0,0 l/m 35,6 km/h (5 Bft) W-SW 254 0 min 185 W/m 11,8 C 6,1 C 54,7 km/h (7 Bft)
13.09.2017 12:12 14,5 C 84 % 986,0 hPa 0,0 l/m 29,4 km/h (5 Bft) S-SW 201 0 min 181 W/m 11,8 C 7,1 C 48,3 km/h (6 Bft)
13.09.2017 12:15 14,5 C 84 % 986,0 hPa 0,0 l/m 33,7 km/h (5 Bft) SW 220 0 min 153 W/m 11,8 C 6,4 C 46,7 km/h (6 Bft)
13.09.2017 12:18 14,5 C 83 % 986,1 hPa 0,0 l/m 32,9 km/h (5 Bft) S-SW 206 0 min 121 W/m 11,6 C 6,5 C 49,9 km/h (7 Bft)
13.09.2017 12:21 14,4 C 83 % 985,9 hPa 0,0 l/m 29,1 km/h (5 Bft) S-SW 205 0 min 118 W/m 11,5 C 7,0 C 51,5 km/h (7 Bft)
13.09.2017 12:24 14,4 C 84 % 986,1 hPa 0,0 l/m 28,5 km/h (5 Bft) SW 230 0 min 74 W/m 11,7 C 7,1 C 41,8 km/h (6 Bft)
13.09.2017 12:27 14,3 C 84 % 986,0 hPa 0,0 l/m 31,3 km/h (5 Bft) W-SW 250 0 min 91 W/m 11,6 C 6,5 C 46,7 km/h (6 Bft)
13.09.2017 12:30 14,3 C 82 % 986,2 hPa 0,0 l/m 37,0 km/h (5 Bft) W-SW 238 0 min 102 W/m 11,3 C 5,6 C 62,8 km/h (7 Bft)
13.09.2017 12:33 14,3 C 82 % 986,1 hPa 0,0 l/m 32,2 km/h (5 Bft) W 259 0 min 171 W/m 11,3 C 6,3 C 57,9 km/h (7 Bft)
13.09.2017 12:36 14,3 C 84 % 986,2 hPa 0,0 l/m 28,3 km/h (5 Bft) SW 224 0 min 93 W/m 11,6 C 7,0 C 46,7 km/h (6 Bft)
13.09.2017 12:39 14,2 C 85 % 986,3 hPa 0,0 l/m 29,0 km/h (5 Bft) SW 231 0 min 329 W/m 11,7 C 6,7 C 48,3 km/h (6 Bft)
13.09.2017 12:42 14,2 C 87 % 986,2 hPa 0,0 l/m 25,6 km/h (4 Bft) SW 223 0 min 308 W/m 12,1 C 7,4 C 40,2 km/h (6 Bft)
13.09.2017 12:45 14,3 C 86 % 986,1 hPa 0,0 l/m 30,5 km/h (5 Bft) SW 223 3 min 359 W/m 12,0 C 6,6 C 51,5 km/h (7 Bft)
13.09.2017 12:48 14,4 C 85 % 986,2 hPa 0,0 l/m 39,9 km/h (6 Bft) SW 223 0 min 257 W/m 11,9 C 5,4 C 59,5 km/h (7 Bft)
13.09.2017 12:51 14,7 C 83 % 986,4 hPa 0,0 l/m 40,2 km/h (6 Bft) S-SW 213 0 min 306 W/m 11,8 C 5,8 C 57,9 km/h (7 Bft)
13.09.2017 12:54 14,8 C 83 % 986,4 hPa 0,0 l/m 30,3 km/h (5 Bft) W 259 0 min 253 W/m 11,9 C 7,4 C 61,2 km/h (7 Bft)
13.09.2017 12:57 14,8 C 82 % 986,4 hPa 0,0 l/m 35,3 km/h (5 Bft) S-SW 200 0 min 311 W/m 11,8 C 6,6 C 57,9 km/h (7 Bft)
13.09.2017 13:00 14,7 C 82 % 986,2 hPa 0,0 l/m 37,8 km/h (5 Bft) W-SW 258 0 min 243 W/m 11,7 C 6,1 C 56,3 km/h (7 Bft)
13.09.2017 13:03 14,7 C 82 % 986,2 hPa 0,0 l/m 37,7 km/h (5 Bft) W-SW 242 3 min 388 W/m 11,7 C 6,1 C 64,4 km/h (8 Bft)
13.09.2017 13:06 14,8 C 81 % 986,2 hPa 0,0 l/m 42,1 km/h (6 Bft) S-SW 211 3 min 622 W/m 11,6 C 5,8 C 66,0 km/h (8 Bft)
13.09.2017 13:09 15,0 C 81 % 986,2 hPa 0,0 l/m 36,3 km/h (5 Bft) S-SW 211 3 min 645 W/m 11,8 C 6,8 C 66,0 km/h (8 Bft)
13.09.2017 13:12 15,2 C 79 % 986,0 hPa 0,0 l/m 36,2 km/h (5 Bft) SW 218 3 min 666 W/m 11,6 C 7,1 C 53,1 km/h (7 Bft)
13.09.2017 13:15 15,3 C 78 % 986,3 hPa 0,0 l/m 39,3 km/h (6 Bft) S-SW 211 3 min 693 W/m 11,5 C 6,8 C 56,3 km/h (7 Bft)
13.09.2017 13:18 15,3 C 79 % 986,2 hPa 0,0 l/m 35,1 km/h (5 Bft) SW 231 3 min 710 W/m 11,7 C 7,4 C 61,2 km/h (7 Bft)
13.09.2017 13:21 15,3 C 79 % 986,3 hPa 0,0 l/m 40,1 km/h (6 Bft) W-SW 238 3 min 721 W/m 11,7 C 6,7 C 62,8 km/h (7 Bft)
13.09.2017 13:24 15,3 C 79 % 986,4 hPa 0,0 l/m 35,6 km/h (5 Bft) SW 220 3 min 714 W/m 11,7 C 7,3 C 57,9 km/h (7 Bft)
13.09.2017 13:27 15,2 C 78 % 986,3 hPa 0,0 l/m 37,3 km/h (5 Bft) W-SW 244 0 min 264 W/m 11,4 C 6,9 C 51,5 km/h (7 Bft)
13.09.2017 13:30 15,1 C 78 % 986,5 hPa 0,0 l/m 42,5 km/h (6 Bft) SW 223 0 min 262 W/m 11,3 C 6,2 C 64,4 km/h (8 Bft)
13.09.2017 13:33 15,0 C 80 % 986,4 hPa 0,0 l/m 35,9 km/h (5 Bft) W-SW 240 0 min 174 W/m 11,6 C 6,8 C 56,3 km/h (7 Bft)
13.09.2017 13:36 14,8 C 80 % 986,6 hPa 0,0 l/m 36,5 km/h (5 Bft) W-SW 242 0 min 83 W/m 11,4 C 6,4 C 54,7 km/h (7 Bft)
13.09.2017 13:39 14,6 C 81 % 986,6 hPa 0,0 l/m 37,5 km/h (5 Bft) S-SW 210 0 min 54 W/m 11,4 C 6,0 C 49,9 km/h (7 Bft)
13.09.2017 13:42 14,3 C 83 % 986,9 hPa 0,0 l/m 32,6 km/h (5 Bft) W-SW 246 0 min 113 W/m 11,5 C 6,3 C 49,9 km/h (7 Bft)
13.09.2017 13:45 14,0 C 85 % 986,6 hPa 0,2 l/m 34,8 km/h (5 Bft) SW 223 0 min 149 W/m 11,5 C 5,5 C 48,3 km/h (6 Bft)
13.09.2017 13:48 13,8 C 86 % 986,7 hPa 0,0 l/m 36,8 km/h (5 Bft) SW 227 0 min 179 W/m 11,5 C 4,9 C 59,5 km/h (7 Bft)
13.09.2017 13:51 13,8 C 87 % 986,6 hPa 0,0 l/m 34,9 km/h (5 Bft) SW 215 0 min 186 W/m 11,7 C 5,2 C 61,2 km/h (7 Bft)
13.09.2017 13:54 13,8 C 86 % 986,6 hPa 0,0 l/m 35,1 km/h (5 Bft) SW 219 0 min 327 W/m 11,5 C 5,2 C 59,5 km/h (7 Bft)
13.09.2017 13:57 14,1 C 85 % 986,8 hPa 0,0 l/m 35,1 km/h (5 Bft) S-SW 205 0 min 295 W/m 11,6 C 5,6 C 51,5 km/h (7 Bft)
13.09.2017 14:00 14,3 C 85 % 986,8 hPa 0,0 l/m 32,0 km/h (5 Bft) SW 233 3 min 355 W/m 11,8 C 6,4 C 51,5 km/h (7 Bft)
13.09.2017 14:03 14,4 C 84 % 986,7 hPa 0,0 l/m 35,0 km/h (5 Bft) S-SW 213 3 min 345 W/m 11,7 C 6,1 C 64,4 km/h (8 Bft)
13.09.2017 14:06 14,5 C 83 % 986,7 hPa 0,0 l/m 37,9 km/h (6 Bft) SW 219 0 min 227 W/m 11,6 C 5,8 C 57,9 km/h (7 Bft)
13.09.2017 14:09 14,5 C 83 % 986,7 hPa 0,0 l/m 35,0 km/h (5 Bft) W-SW 251 0 min 171 W/m 11,6 C 6,2 C 49,9 km/h (7 Bft)
13.09.2017 14:12 14,6 C 83 % 986,7 hPa 0,0 l/m 26,1 km/h (4 Bft) S-SW 206 0 min 139 W/m 11,7 C 7,8 C 38,6 km/h (6 Bft)
13.09.2017 14:15 14,6 C 82 % 986,7 hPa 0,0 l/m 31,0 km/h (5 Bft) S-SW 198 0 min 193 W/m 11,6 C 7,0 C 51,5 km/h (7 Bft)
13.09.2017 14:18 14,6 C 80 % 986,6 hPa 0,0 l/m 38,6 km/h (6 Bft) W-SW 254 0 min 98 W/m 11,2 C 5,9 C 62,8 km/h (7 Bft)
13.09.2017 14:21 14,6 C 78 % 986,6 hPa 0,0 l/m 38,4 km/h (6 Bft) SW 219 0 min 93 W/m 10,8 C 5,9 C 67,6 km/h (8 Bft)
13.09.2017 14:24 14,6 C 79 % 986,7 hPa 0,0 l/m 33,9 km/h (5 Bft) SW 214 0 min 162 W/m 11,0 C 6,5 C 57,9 km/h (7 Bft)
13.09.2017 14:27 14,5 C 79 % 986,8 hPa 0,0 l/m 33,6 km/h (5 Bft) SW 223 0 min 160 W/m 10,9 C 6,4 C 56,3 km/h (7 Bft)
13.09.2017 14:30 14,5 C 78 % 986,7 hPa 0,0 l/m 37,0 km/h (5 Bft) SW 230 0 min 153 W/m 10,7 C 5,9 C 61,2 km/h (7 Bft)
13.09.2017 14:33 14,6 C 78 % 986,8 hPa 0,0 l/m 36,5 km/h (5 Bft) SW 218 0 min 121 W/m 10,8 C 6,1 C 61,2 km/h (7 Bft)
13.09.2017 14:36 14,6 C 78 % 986,8 hPa 0,0 l/m 37,6 km/h (5 Bft) SW 227 0 min 178 W/m 10,8 C 6,0 C 66,0 km/h (8 Bft)
13.09.2017 14:39 14,6 C 77 % 986,7 hPa 0,0 l/m 38,5 km/h (6 Bft) S-SW 209 0 min 151 W/m 10,6 C 5,9 C 69,2 km/h (8 Bft)
13.09.2017 14:42 14,7 C 77 % 986,8 hPa 0,0 l/m 38,6 km/h (6 Bft) W-SW 251 0 min 155 W/m 10,7 C 6,0 C 64,4 km/h (8 Bft)
13.09.2017 14:45 14,7 C 75 % 986,6 hPa 0,0 l/m 46,9 km/h (6 Bft) SW 227 0 min 160 W/m 10,3 C 5,2 C 72,4 km/h (8 Bft)
13.09.2017 14:48 14,8 C 75 % 986,6 hPa 0,0 l/m 40,0 km/h (6 Bft) SW 236 0 min 199 W/m 10,4 C 6,0 C 59,5 km/h (7 Bft)
13.09.2017 14:51 14,8 C 76 % 986,6 hPa 0,0 l/m 42,2 km/h (6 Bft) W-SW 237 0 min 243 W/m 10,6 C 5,8 C 69,2 km/h (8 Bft)
13.09.2017 14:54 14,9 C 76 % 986,7 hPa 0,0 l/m 40,8 km/h (6 Bft) W-SW 240 0 min 274 W/m 10,7 C 6,1 C 61,2 km/h (7 Bft)
13.09.2017 14:57 15,0 C 75 % 986,8 hPa 0,0 l/m 42,0 km/h (6 Bft) SW 225 3 min 339 W/m 10,6 C 6,1 C 64,4 km/h (8 Bft)
13.09.2017 15:00 15,1 C 75 % 987,1 hPa 0,0 l/m 44,9 km/h (6 Bft) S-SW 208 0 min 267 W/m 10,7 C 6,0 C 74,0 km/h (9 Bft)
13.09.2017 15:03 15,1 C 75 % 986,8 hPa 0,0 l/m 42,4 km/h (6 Bft) SW 236 0 min 220 W/m 10,7 C 6,2 C 64,4 km/h (8 Bft)
13.09.2017 15:06 15,1 C 75 % 986,9 hPa 0,0 l/m 37,8 km/h (5 Bft) S-SW 192 0 min 193 W/m 10,7 C 6,7 C 64,4 km/h (8 Bft)
13.09.2017 15:09 15,1 C 74 % 987,1 hPa 0,0 l/m 43,5 km/h (6 Bft) S-SW 213 0 min 188 W/m 10,5 C 6,1 C 72,4 km/h (8 Bft)
13.09.2017 15:12 15,1 C 75 % 987,1 hPa 0,0 l/m 37,7 km/h (5 Bft) W-SW 242 0 min 135 W/m 10,7 C 6,7 C 54,7 km/h (7 Bft)
13.09.2017 15:15 15,1 C 75 % 987,1 hPa 0,0 l/m 38,3 km/h (6 Bft) W-SW 252 0 min 165 W/m 10,7 C 6,7 C 57,9 km/h (7 Bft)
13.09.2017 15:18 15,1 C 74 % 987,1 hPa 0,0 l/m 34,8 km/h (5 Bft) W-SW 242 0 min 98 W/m 10,5 C 7,1 C 51,5 km/h (7 Bft)
13.09.2017 15:21 15,1 C 74 % 987,0 hPa 0,0 l/m 40,4 km/h (6 Bft) S-SW 200 0 min 179 W/m 10,5 C 6,4 C 64,4 km/h (8 Bft)
13.09.2017 15:24 15,1 C 73 % 987,1 hPa 0,0 l/m 47,3 km/h (6 Bft) S-SW 208 0 min 149 W/m 10,3 C 5,7 C 67,6 km/h (8 Bft)
13.09.2017 15:27 15,1 C 73 % 987,2 hPa 0,0 l/m 36,2 km/h (5 Bft) W-SW 242 0 min 90 W/m 10,3 C 6,9 C 54,7 km/h (7 Bft)
13.09.2017 15:30 15,1 C 73 % 987,4 hPa 0,0 l/m 40,9 km/h (6 Bft) SW 223 0 min 88 W/m 10,3 C 6,4 C 67,6 km/h (8 Bft)
13.09.2017 15:33 15,0 C 74 % 987,2 hPa 0,0 l/m 40,8 km/h (6 Bft) W 267 0 min 104 W/m 10,4 C 6,2 C 59,5 km/h (7 Bft)
13.09.2017 15:36 15,0 C 74 % 987,3 hPa 0,0 l/m 36,8 km/h (5 Bft) S-SW 205 0 min 86 W/m 10,4 C 6,7 C 57,9 km/h (7 Bft)
13.09.2017 15:39 15,0 C 74 % 987,3 hPa 0,0 l/m 41,6 km/h (6 Bft) W-SW 243 0 min 113 W/m 10,4 C 6,1 C 67,6 km/h (8 Bft)
13.09.2017 15:42 14,9 C 74 % 987,4 hPa 0,0 l/m 39,7 km/h (6 Bft) S-SW 209 0 min 90 W/m 10,3 C 6,2 C 64,4 km/h (8 Bft)
13.09.2017 15:45 14,9 C 75 % 987,6 hPa 0,0 l/m 37,1 km/h (5 Bft) W-SW 239 0 min 58 W/m 10,5 C 6,5 C 57,9 km/h (7 Bft)
13.09.2017 15:48 14,8 C 77 % 987,5 hPa 0,0 l/m 33,5 km/h (5 Bft) W-SW 251 0 min 135 W/m 10,8 C 6,9 C 61,2 km/h (7 Bft)
13.09.2017 15:51 14,7 C 77 % 987,6 hPa 0,0 l/m 38,4 km/h (6 Bft) W-SW 240 0 min 91 W/m 10,7 C 6,1 C 67,6 km/h (8 Bft)
13.09.2017 15:54 14,6 C 79 % 987,6 hPa 0,0 l/m 31,3 km/h (5 Bft) S 188 0 min 63 W/m 11,0 C 6,9 C 51,5 km/h (7 Bft)
13.09.2017 15:57 14,4 C 81 % 987,7 hPa 0,0 l/m 30,8 km/h (5 Bft) S-SW 213 0 min 93 W/m 11,2 C 6,7 C 59,5 km/h (7 Bft)
13.09.2017 16:00 14,1 C 82 % 987,8 hPa 0,2 l/m 37,0 km/h (5 Bft) S-SW 204 0 min 69 W/m 11,1 C 5,4 C 61,2 km/h (7 Bft)
13.09.2017 16:03 13,8 C 83 % 988,0 hPa 0,0 l/m 33,1 km/h (5 Bft) W 270 0 min 67 W/m 11,0 C 5,5 C 59,5 km/h (7 Bft)
13.09.2017 16:06 13,6 C 86 % 988,1 hPa 0,2 l/m 34,1 km/h (5 Bft) W-SW 257 0 min 72 W/m 11,3 C 5,0 C 61,2 km/h (7 Bft)
13.09.2017 16:09 13,5 C 87 % 988,0 hPa 0,2 l/m 38,9 km/h (6 Bft) SW 223 0 min 58 W/m 11,4 C 4,2 C 64,4 km/h (8 Bft)
13.09.2017 16:12 13,3 C 88 % 988,0 hPa 0,0 l/m 32,1 km/h (5 Bft) SW 228 0 min 91 W/m 11,4 C 4,9 C 51,5 km/h (7 Bft)
13.09.2017 16:15 13,3 C 89 % 988,1 hPa 0,2 l/m 28,2 km/h (5 Bft) SW 232 0 min 65 W/m 11,5 C 5,6 C 48,3 km/h (6 Bft)
13.09.2017 16:18 13,3 C 89 % 988,2 hPa 0,0 l/m 30,4 km/h (5 Bft) W-SW 238 0 min 51 W/m 11,5 C 5,2 C 57,9 km/h (7 Bft)
13.09.2017 16:21 13,2 C 90 % 988,5 hPa 0,2 l/m 28,0 km/h (5 Bft) W-SW 257 0 min 33 W/m 11,6 C 5,5 C 48,3 km/h (6 Bft)
13.09.2017 16:24 13,2 C 91 % 988,3 hPa 0,6 l/m 31,0 km/h (5 Bft) W-SW 247 0 min 44 W/m 11,8 C 5,0 C 56,3 km/h (7 Bft)
13.09.2017 16:27 13,2 C 91 % 988,5 hPa 0,2 l/m 28,5 km/h (5 Bft) W-SW 241 0 min 60 W/m 11,8 C 5,4 C 49,9 km/h (7 Bft)
13.09.2017 16:30 13,2 C 92 % 988,5 hPa 0,2 l/m 29,3 km/h (5 Bft) SW 221 0 min 63 W/m 11,9 C 5,3 C 57,9 km/h (7 Bft)
13.09.2017 16:33 13,1 C 92 % 988,5 hPa 0,2 l/m 31,4 km/h (5 Bft) SW 234 0 min 47 W/m 11,8 C 4,8 C 61,2 km/h (7 Bft)
13.09.2017 16:36 13,1 C 92 % 988,6 hPa 0,6 l/m 30,7 km/h (5 Bft) SW 234 0 min 32 W/m 11,8 C 4,9 C 48,3 km/h (6 Bft)
13.09.2017 16:39 13,0 C 92 % 988,7 hPa 0,4 l/m 29,5 km/h (5 Bft) W-NW 284 0 min 33 W/m 11,7 C 5,0 C 57,9 km/h (7 Bft)
13.09.2017 16:42 13,0 C 93 % 989,2 hPa 1,0 l/m 34,1 km/h (5 Bft) W 263 0 min 18 W/m 11,9 C 4,2 C 69,2 km/h (8 Bft)
13.09.2017 16:45 12,9 C 93 % 988,8 hPa 0,8 l/m 33,5 km/h (5 Bft) W 281 0 min 39 W/m 11,8 C 4,1 C 54,7 km/h (7 Bft)
13.09.2017 16:48 12,9 C 93 % 989,0 hPa 0,4 l/m 29,8 km/h (5 Bft) W 280 0 min 54 W/m 11,8 C 4,8 C 54,7 km/h (7 Bft)
13.09.2017 16:51 12,9 C 93 % 988,8 hPa 0,2 l/m 28,1 km/h (5 Bft) SW 232 0 min 109 W/m 11,8 C 5,1 C 46,7 km/h (6 Bft)
13.09.2017 16:54 12,9 C 93 % 988,8 hPa 0,0 l/m 24,9 km/h (4 Bft) W-SW 248 0 min 58 W/m 11,8 C 5,8 C 43,5 km/h (6 Bft)
13.09.2017 16:57 12,8 C 93 % 988,8 hPa 0,2 l/m 30,1 km/h (5 Bft) SW 216 0 min 49 W/m 11,7 C 4,6 C 45,1 km/h (6 Bft)
13.09.2017 17:00 12,9 C 93 % 988,7 hPa 0,0 l/m 28,8 km/h (5 Bft) SW 227 0 min 28 W/m 11,8 C 5,0 C 48,3 km/h (6 Bft)
13.09.2017 17:03 12,9 C 93 % 989,0 hPa 0,0 l/m 34,9 km/h (5 Bft) W-SW 242 0 min 42 W/m 11,8 C 3,9 C 57,9 km/h (7 Bft)
13.09.2017 17:06 12,8 C 93 % 988,7 hPa 0,0 l/m 38,6 km/h (6 Bft) SW 229 0 min 102 W/m 11,7 C 3,2 C 59,5 km/h (7 Bft)
13.09.2017 17:09 12,9 C 92 % 988,9 hPa 0,0 l/m 33,0 km/h (5 Bft) SW 216 0 min 102 W/m 11,6 C 4,2 C 57,9 km/h (7 Bft)
13.09.2017 17:12 13,0 C 92 % 988,9 hPa 0,0 l/m 39,6 km/h (6 Bft) W-SW 249 0 min 144 W/m 11,7 C 3,4 C 66,0 km/h (8 Bft)
13.09.2017 17:15 13,2 C 91 % 989,0 hPa 0,0 l/m 32,1 km/h (5 Bft) NW 304 0 min 162 W/m 11,8 C 4,8 C 69,2 km/h (8 Bft)
13.09.2017 17:18 13,3 C 90 % 989,1 hPa 0,0 l/m 35,7 km/h (5 Bft) SW 225 0 min 137 W/m 11,7 C 4,4 C 67,6 km/h (8 Bft)
13.09.2017 17:21 13,5 C 89 % 989,1 hPa 0,0 l/m 31,3 km/h (5 Bft) SW 216 0 min 65 W/m 11,7 C 5,3 C 61,2 km/h (7 Bft)
13.09.2017 17:24 13,7 C 89 % 989,2 hPa 0,0 l/m 25,0 km/h (4 Bft) W 265 0 min 118 W/m 11,9 C 6,8 C 56,3 km/h (7 Bft)
13.09.2017 17:27 13,8 C 87 % 989,2 hPa 0,0 l/m 33,1 km/h (5 Bft) W-SW 242 3 min 188 W/m 11,7 C 5,5 C 59,5 km/h (7 Bft)
13.09.2017 17:30 13,9 C 84 % 989,3 hPa 0,2 l/m 43,2 km/h (6 Bft) W-SW 244 0 min 127 W/m 11,2 C 4,3 C 75,6 km/h (9 Bft)
13.09.2017 17:33 14,1 C 84 % 989,3 hPa 0,0 l/m 31,8 km/h (5 Bft) SW 234 0 min 148 W/m 11,4 C 6,1 C 53,1 km/h (7 Bft)
13.09.2017 17:36 14,3 C 84 % 989,4 hPa 0,0 l/m 32,6 km/h (5 Bft) SW 227 0 min 125 W/m 11,6 C 6,3 C 56,3 km/h (7 Bft)
13.09.2017 17:39 14,3 C 83 % 989,5 hPa 0,0 l/m 25,7 km/h (4 Bft) W-SW 249 0 min 105 W/m 11,5 C 7,5 C 51,5 km/h (7 Bft)
13.09.2017 17:42 14,4 C 82 % 989,6 hPa 0,0 l/m 30,9 km/h (5 Bft) SW 216 0 min 104 W/m 11,4 C 6,7 C 54,7 km/h (7 Bft)
13.09.2017 17:45 14,4 C 80 % 989,6 hPa 0,0 l/m 33,1 km/h (5 Bft) W-SW 238 0 min 135 W/m 11,0 C 6,3 C 51,5 km/h (7 Bft)
13.09.2017 17:48 14,6 C 79 % 989,4 hPa 0,0 l/m 29,4 km/h (5 Bft) S-SW 201 3 min 188 W/m 11,0 C 7,2 C 66,0 km/h (8 Bft)
13.09.2017 17:51 14,8 C 78 % 989,7 hPa 0,0 l/m 29,3 km/h (5 Bft) W-SW 247 0 min 114 W/m 11,0 C 7,5 C 75,6 km/h (9 Bft)
13.09.2017 17:54 14,8 C 78 % 989,8 hPa 0,0 l/m 29,8 km/h (5 Bft) SW 223 0 min 111 W/m 11,0 C 7,4 C 56,3 km/h (7 Bft)
13.09.2017 17:57 14,9 C 78 % 989,8 hPa 0,0 l/m 29,6 km/h (5 Bft) NW 321 3 min 237 W/m 11,1 C 7,6 C 48,3 km/h (6 Bft)
13.09.2017 18:00 14,8 C 78 % 989,8 hPa 0,0 l/m 30,8 km/h (5 Bft) SW 216 3 min 207 W/m 11,0 C 7,3 C 66,0 km/h (8 Bft)
13.09.2017 18:03 14,8 C 79 % 990,0 hPa 0,0 l/m 29,0 km/h (5 Bft) W-SW 252 0 min 70 W/m 11,2 C 7,6 C 56,3 km/h (7 Bft)
13.09.2017 18:06 14,7 C 79 % 989,9 hPa 0,0 l/m 32,1 km/h (5 Bft) SW 218 0 min 32 W/m 11,1 C 6,9 C 59,5 km/h (7 Bft)
13.09.2017 18:09 14,7 C 80 % 990,1 hPa 0,0 l/m 25,7 km/h (4 Bft) W-SW 245 0 min 37 W/m 11,3 C 8,1 C 46,7 km/h (6 Bft)
13.09.2017 18:12 14,7 C 82 % 990,2 hPa 0,0 l/m 30,3 km/h (5 Bft) W-SW 244 3 min 239 W/m 11,7 C 7,2 C 49,9 km/h (7 Bft)
13.09.2017 18:15 14,4 C 83 % 989,9 hPa 0,0 l/m 30,2 km/h (5 Bft) W-SW 250 3 min 186 W/m 11,5 C 6,8 C 62,8 km/h (7 Bft)
13.09.2017 18:18 14,4 C 80 % 990,2 hPa 0,0 l/m 42,6 km/h (6 Bft) W 267 0 min 105 W/m 11,0 C 5,1 C 72,4 km/h (8 Bft)
13.09.2017 18:21 14,6 C 79 % 990,1 hPa 0,0 l/m 30,4 km/h (5 Bft) W-SW 246 0 min 83 W/m 11,0 C 7,1 C 48,3 km/h (6 Bft)
13.09.2017 18:24 14,7 C 79 % 990,1 hPa 0,0 l/m 26,6 km/h (4 Bft) S-SW 203 3 min 137 W/m 11,1 C 7,9 C 51,5 km/h (7 Bft)
13.09.2017 18:27 14,9 C 78 % 990,1 hPa 0,0 l/m 31,3 km/h (5 Bft) W-SW 244 3 min 137 W/m 11,1 C 7,3 C 54,7 km/h (7 Bft)
13.09.2017 18:30 15,1 C 78 % 990,2 hPa 0,0 l/m 31,5 km/h (5 Bft) W-SW 240 3 min 105 W/m 11,3 C 7,6 C 53,1 km/h (7 Bft)
13.09.2017 18:33 15,1 C 79 % 990,2 hPa 0,0 l/m 26,9 km/h (4 Bft) SW 221 0 min 42 W/m 11,5 C 8,4 C 54,7 km/h (7 Bft)
13.09.2017 18:36 14,9 C 79 % 990,1 hPa 0,0 l/m 33,2 km/h (5 Bft) S-SW 207 0 min 46 W/m 11,3 C 7,0 C 51,5 km/h (7 Bft)
13.09.2017 18:39 14,8 C 79 % 990,3 hPa 0,0 l/m 35,5 km/h (5 Bft) W 275 0 min 58 W/m 11,2 C 6,6 C 59,5 km/h (7 Bft)
13.09.2017 18:42 14,7 C 80 % 990,2 hPa 0,0 l/m 33,2 km/h (5 Bft) W 273 3 min 83 W/m 11,3 C 6,8 C 62,8 km/h (7 Bft)
13.09.2017 18:45 14,6 C 81 % 990,6 hPa 0,0 l/m 32,1 km/h (5 Bft) W-SW 257 0 min 33 W/m 11,4 C 6,8 C 56,3 km/h (7 Bft)
13.09.2017 18:48 14,5 C 81 % 990,3 hPa 0,0 l/m 34,5 km/h (5 Bft) W-SW 249 0 min 14 W/m 11,3 C 6,3 C 51,5 km/h (7 Bft)
13.09.2017 18:51 14,5 C 82 % 990,3 hPa 0,0 l/m 30,1 km/h (5 Bft) W 263 0 min 16 W/m 11,5 C 7,0 C 48,3 km/h (6 Bft)
13.09.2017 18:54 14,4 C 81 % 990,3 hPa 0,0 l/m 30,1 km/h (5 Bft) S-SW 212 0 min 39 W/m 11,2 C 6,8 C 48,3 km/h (6 Bft)
13.09.2017 18:57 14,4 C 81 % 990,3 hPa 0,0 l/m 38,1 km/h (6 Bft) SW 225 0 min 32 W/m 11,2 C 5,6 C 54,7 km/h (7 Bft)
13.09.2017 19:00 14,4 C 81 % 990,4 hPa 0,0 l/m 31,3 km/h (5 Bft) W-SW 238 0 min 14 W/m 11,2 C 6,6 C 53,1 km/h (7 Bft)
13.09.2017 19:03 14,3 C 81 % 990,3 hPa 0,0 l/m 31,2 km/h (5 Bft) SW 227 0 min 5 W/m 11,1 C 6,5 C 51,5 km/h (7 Bft)
13.09.2017 19:06 14,3 C 80 % 990,4 hPa 0,2 l/m 41,8 km/h (6 Bft) W-SW 243 0 min 0 W/m 10,9 C 5,1 C 64,4 km/h (8 Bft)
13.09.2017 19:09 14,2 C 81 % 990,7 hPa 0,0 l/m 37,6 km/h (5 Bft) W-SW 248 3 min 72 W/m 11,0 C 5,4 C 54,7 km/h (7 Bft)
13.09.2017 19:12 13,8 C 84 % 990,6 hPa 0,0 l/m 32,1 km/h (5 Bft) SW 216 3 min 53 W/m 11,1 C 5,6 C 51,5 km/h (7 Bft)
13.09.2017 19:15 13,6 C 85 % 990,5 hPa 0,2 l/m 27,3 km/h (5 Bft) W-SW 246 0 min 12 W/m 11,1 C 6,2 C 48,3 km/h (6 Bft)
13.09.2017 19:18 13,5 C 87 % 990,5 hPa 0,0 l/m 29,9 km/h (5 Bft) W-SW 242 0 min 26 W/m 11,4 C 5,6 C 45,1 km/h (6 Bft)
13.09.2017 19:21 13,5 C 87 % 990,6 hPa 0,0 l/m 30,4 km/h (5 Bft) W-SW 250 0 min 21 W/m 11,4 C 5,5 C 49,9 km/h (7 Bft)
13.09.2017 19:24 13,4 C 86 % 990,5 hPa 0,0 l/m 34,2 km/h (5 Bft) W-SW 237 0 min 12 W/m 11,1 C 4,7 C 51,5 km/h (7 Bft)
13.09.2017 19:27 13,3 C 86 % 990,5 hPa 0,0 l/m 34,4 km/h (5 Bft) S-SW 198 0 min 9 W/m 11,0 C 4,6 C 53,1 km/h (7 Bft)
13.09.2017 19:30 13,4 C 85 % 990,5 hPa 0,0 l/m 34,4 km/h (5 Bft) S-SO 149 0 min 7 W/m 10,9 C 4,7 C 53,1 km/h (7 Bft)
13.09.2017 19:33 13,4 C 85 % 990,4 hPa 0,0 l/m 33,2 km/h (5 Bft) SW 224 0 min 7 W/m 10,9 C 4,9 C 57,9 km/h (7 Bft)
13.09.2017 19:36 13,4 C 85 % 990,6 hPa 0,0 l/m 31,7 km/h (5 Bft) SW 217 0 min 5 W/m 10,9 C 5,1 C 53,1 km/h (7 Bft)
13.09.2017 19:39 13,4 C 85 % 990,6 hPa 0,0 l/m 29,4 km/h (5 Bft) W-SW 256 0 min 5 W/m 10,9 C 5,5 C 46,7 km/h (6 Bft)
13.09.2017 19:42 13,4 C 85 % 990,7 hPa 0,0 l/m 27,8 km/h (5 Bft) W-SW 250 0 min 0 W/m 10,9 C 5,9 C 53,1 km/h (7 Bft)
13.09.2017 19:45 13,4 C 85 % 990,8 hPa 0,0 l/m 31,1 km/h (5 Bft) SW 232 0 min 0 W/m 10,9 C 5,2 C 49,9 km/h (7 Bft)
13.09.2017 19:48 13,6 C 85 % 990,8 hPa 0,0 l/m 29,3 km/h (5 Bft) W-SW 237 0 min 0 W/m 11,1 C 5,8 C 45,1 km/h (6 Bft)
13.09.2017 19:51 13,6 C 85 % 990,8 hPa 0,0 l/m 28,4 km/h (5 Bft) SW 223 0 min 0 W/m 11,1 C 6,0 C 51,5 km/h (7 Bft)
13.09.2017 19:54 13,6 C 86 % 990,9 hPa 0,0 l/m 31,6 km/h (5 Bft) W 264 0 min 0 W/m 11,3 C 5,4 C 48,3 km/h (6 Bft)
13.09.2017 19:57 13,6 C 86 % 990,9 hPa 0,0 l/m 30,7 km/h (5 Bft) W-SW 256 0 min 0 W/m 11,3 C 5,6 C 43,5 km/h (6 Bft)
13.09.2017 20:00 13,7 C 86 % 991,0 hPa 0,0 l/m 31,8 km/h (5 Bft) SW 233 0 min 0 W/m 11,4 C 5,5 C 51,5 km/h (7 Bft)
13.09.2017 20:03 13,7 C 85 % 990,9 hPa 0,0 l/m 36,3 km/h (5 Bft) SW 236 0 min 0 W/m 11,2 C 4,9 C 64,4 km/h (8 Bft)
13.09.2017 20:06 13,6 C 84 % 991,0 hPa 0,0 l/m 32,9 km/h (5 Bft) SW 227 0 min 0 W/m 10,9 C 5,2 C 61,2 km/h (7 Bft)
13.09.2017 20:09 13,6 C 84 % 991,1 hPa 0,0 l/m 29,4 km/h (5 Bft) S-SW 213 0 min 0 W/m 10,9 C 5,8 C 51,5 km/h (7 Bft)
13.09.2017 20:12 13,6 C 84 % 991,1 hPa 0,0 l/m 30,4 km/h (5 Bft) W-SW 247 0 min 0 W/m 10,9 C 5,6 C 45,1 km/h (6 Bft)
13.09.2017 20:15 13,5 C 85 % 991,1 hPa 0,0 l/m 25,7 km/h (4 Bft) S-SW 204 0 min 0 W/m 11,0 C 6,4 C 38,6 km/h (6 Bft)
13.09.2017 20:18 13,5 C 85 % 991,1 hPa 0,0 l/m 27,1 km/h (5 Bft) S-SW 192 0 min 0 W/m 11,0 C 6,1 C 43,5 km/h (6 Bft)
13.09.2017 20:21 13,5 C 85 % 991,2 hPa 0,0 l/m 27,5 km/h (5 Bft) S-SW 207 0 min 0 W/m 11,0 C 6,1 C 43,5 km/h (6 Bft)
13.09.2017 20:24 13,6 C 85 % 991,1 hPa 0,0 l/m 31,3 km/h (5 Bft) SW 215 0 min 0 W/m 11,1 C 5,5 C 43,5 km/h (6 Bft)
13.09.2017 20:27 13,6 C 84 % 991,1 hPa 0,0 l/m 29,1 km/h (5 Bft) W-SW 244 0 min 0 W/m 10,9 C 5,9 C 48,3 km/h (6 Bft)
13.09.2017 20:30 13,7 C 83 % 991,2 hPa 0,0 l/m 29,6 km/h (5 Bft) SW 231 0 min 0 W/m 10,9 C 5,9 C 49,9 km/h (7 Bft)
13.09.2017 20:33 13,7 C 83 % 991,2 hPa 0,0 l/m 32,0 km/h (5 Bft) SW 229 0 min 0 W/m 10,9 C 5,5 C 54,7 km/h (7 Bft)
13.09.2017 20:36 13,7 C 82 % 991,2 hPa 0,0 l/m 28,1 km/h (5 Bft) W-SW 242 0 min 0 W/m 10,7 C 6,2 C 43,5 km/h (6 Bft)
13.09.2017 20:39 13,7 C 82 % 991,3 hPa 0,0 l/m 30,0 km/h (5 Bft) W-SW 246 0 min 0 W/m 10,7 C 5,9 C 49,9 km/h (7 Bft)
13.09.2017 20:42 13,8 C 83 % 991,2 hPa 0,0 l/m 27,3 km/h (5 Bft) SW 227 0 min 0 W/m 11,0 C 6,5 C 45,1 km/h (6 Bft)
13.09.2017 20:45 13,8 C 84 % 991,3 hPa 0,0 l/m 30,1 km/h (5 Bft) SW 229 0 min 0 W/m 11,1 C 6,0 C 40,2 km/h (6 Bft)
13.09.2017 20:48 13,8 C 83 % 991,2 hPa 0,0 l/m 28,8 km/h (5 Bft) SW 217 0 min 0 W/m 11,0 C 6,2 C 38,6 km/h (6 Bft)
13.09.2017 20:51 13,8 C 83 % 991,4 hPa 0,0 l/m 29,4 km/h (5 Bft) SW 233 0 min 0 W/m 11,0 C 6,1 C 45,1 km/h (6 Bft)
13.09.2017 20:54 13,7 C 83 % 991,4 hPa 0,0 l/m 25,1 km/h (4 Bft) SW 235 0 min 0 W/m 10,9 C 6,8 C 48,3 km/h (6 Bft)
13.09.2017 20:57 13,7 C 83 % 991,2 hPa 0,0 l/m 27,5 km/h (5 Bft) SW 228 0 min 0 W/m 10,9 C 6,3 C 41,8 km/h (6 Bft)
13.09.2017 21:00 13,7 C 83 % 991,4 hPa 0,0 l/m 27,8 km/h (5 Bft) SW 222 0 min 0 W/m 10,9 C 6,3 C 46,7 km/h (6 Bft)
13.09.2017 21:03 13,7 C 83 % 991,3 hPa 0,0 l/m 27,9 km/h (5 Bft) S-SW 203 0 min 0 W/m 10,9 C 6,2 C 45,1 km/h (6 Bft)
13.09.2017 21:06 13,7 C 83 % 991,4 hPa 0,0 l/m 25,4 km/h (4 Bft) S-SW 203 0 min 0 W/m 10,9 C 6,8 C 56,3 km/h (7 Bft)
13.09.2017 21:09 13,7 C 83 % 991,3 hPa 0,0 l/m 26,2 km/h (4 Bft) SW 225 0 min 0 W/m 10,9 C 6,6 C 43,5 km/h (6 Bft)
13.09.2017 21:12 13,8 C 84 % 991,4 hPa 0,0 l/m 21,3 km/h (4 Bft) SW 236 0 min 0 W/m 11,1 C 7,9 C 35,4 km/h (5 Bft)
13.09.2017 21:15 13,7 C 84 % 991,4 hPa 0,0 l/m 21,7 km/h (4 Bft) S-SW 210 0 min 0 W/m 11,0 C 7,6 C 35,4 km/h (5 Bft)
13.09.2017 21:18 13,6 C 85 % 991,6 hPa 0,2 l/m 23,2 km/h (4 Bft) W-SW 238 0 min 0 W/m 11,1 C 7,1 C 37,0 km/h (5 Bft)
13.09.2017 21:21 13,4 C 85 % 991,5 hPa 0,2 l/m 19,5 km/h (3 Bft) SW 221 0 min 0 W/m 10,9 C 7,8 C 30,6 km/h (5 Bft)
13.09.2017 21:24 13,3 C 86 % 991,7 hPa 0,2 l/m 21,2 km/h (4 Bft) W-SW 245 0 min 0 W/m 11,0 C 7,2 C 38,6 km/h (6 Bft)
13.09.2017 21:27 13,3 C 87 % 991,7 hPa 0,6 l/m 23,1 km/h (4 Bft) SW 224 0 min 0 W/m 11,2 C 6,7 C 41,8 km/h (6 Bft)
13.09.2017 21:30 13,2 C 88 % 991,5 hPa 0,2 l/m 22,7 km/h (4 Bft) W-SW 247 0 min 0 W/m 11,3 C 6,7 C 35,4 km/h (5 Bft)
13.09.2017 21:33 13,1 C 88 % 991,8 hPa 0,0 l/m 23,2 km/h (4 Bft) SW 236 0 min 0 W/m 11,2 C 6,5 C 37,0 km/h (5 Bft)
13.09.2017 21:36 13,1 C 89 % 991,8 hPa 0,2 l/m 19,6 km/h (3 Bft) SW 229 0 min 0 W/m 11,3 C 7,4 C 38,6 km/h (6 Bft)
13.09.2017 21:39 12,9 C 89 % 991,7 hPa 0,2 l/m 20,1 km/h (4 Bft) SW 214 0 min 0 W/m 11,1 C 7,0 C 41,8 km/h (6 Bft)
13.09.2017 21:42 12,9 C 89 % 991,7 hPa 0,2 l/m 20,8 km/h (4 Bft) S-SW 203 0 min 0 W/m 11,1 C 6,8 C 32,2 km/h (5 Bft)
13.09.2017 21:45 12,8 C 90 % 991,7 hPa 0,0 l/m 21,2 km/h (4 Bft) SW 235 0 min 0 W/m 11,2 C 6,6 C 35,4 km/h (5 Bft)
13.09.2017 21:48 12,8 C 90 % 991,6 hPa 0,0 l/m 23,0 km/h (4 Bft) SW 226 0 min 0 W/m 11,2 C 6,1 C 41,8 km/h (6 Bft)
13.09.2017 21:51 12,8 C 90 % 991,6 hPa 0,0 l/m 20,4 km/h (4 Bft) SW 232 0 min 0 W/m 11,2 C 6,8 C 30,6 km/h (5 Bft)
13.09.2017 21:54 12,8 C 90 % 991,7 hPa 0,0 l/m 22,7 km/h (4 Bft) SW 225 0 min 0 W/m 11,2 C 6,2 C 35,4 km/h (5 Bft)
13.09.2017 21:57 12,8 C 90 % 991,7 hPa 0,0 l/m 23,0 km/h (4 Bft) S-SW 209 0 min 0 W/m 11,2 C 6,1 C 32,2 km/h (5 Bft)
13.09.2017 22:00 12,8 C 90 % 991,8 hPa 0,2 l/m 22,2 km/h (4 Bft) SW 235 0 min 0 W/m 11,2 C 6,3 C 37,0 km/h (5 Bft)
13.09.2017 22:03 12,9 C 90 % 991,9 hPa 0,0 l/m 25,3 km/h (4 Bft) S-SW 202 0 min 0 W/m 11,3 C 5,7 C 46,7 km/h (6 Bft)
13.09.2017 22:06 12,9 C 90 % 992,0 hPa 0,0 l/m 23,9 km/h (4 Bft) SW 221 0 min 0 W/m 11,3 C 6,0 C 41,8 km/h (6 Bft)
13.09.2017 22:09 12,9 C 89 % 991,9 hPa 0,0 l/m 28,3 km/h (5 Bft) SW 230 0 min 0 W/m 11,1 C 5,1 C 45,1 km/h (6 Bft)
13.09.2017 22:12 12,9 C 89 % 991,9 hPa 0,0 l/m 22,2 km/h (4 Bft) W-SW 250 0 min 0 W/m 11,1 C 6,4 C 37,0 km/h (5 Bft)
13.09.2017 22:15 12,9 C 89 % 992,1 hPa 0,0 l/m 22,2 km/h (4 Bft) W-SW 247 0 min 0 W/m 11,1 C 6,4 C 33,8 km/h (5 Bft)
13.09.2017 22:18 13,0 C 89 % 992,0 hPa 0,0 l/m 23,6 km/h (4 Bft) W-SW 237 0 min 0 W/m 11,2 C 6,2 C 40,2 km/h (6 Bft)
13.09.2017 22:21 13,0 C 89 % 992,0 hPa 0,0 l/m 24,2 km/h (4 Bft) SW 227 0 min 0 W/m 11,2 C 6,1 C 40,2 km/h (6 Bft)
13.09.2017 22:24 12,9 C 89 % 992,1 hPa 0,0 l/m 18,6 km/h (3 Bft) W-SW 244 0 min 0 W/m 11,1 C 7,4 C 37,0 km/h (5 Bft)
13.09.2017 22:27 12,9 C 89 % 992,1 hPa 0,0 l/m 20,6 km/h (4 Bft) SW 214 0 min 0 W/m 11,1 C 6,9 C 33,8 km/h (5 Bft)
13.09.2017 22:30 12,8 C 89 % 992,0 hPa 0,0 l/m 19,7 km/h (3 Bft) SW 228 0 min 0 W/m 11,0 C 7,0 C 37,0 km/h (5 Bft)
13.09.2017 22:33 12,9 C 89 % 992,1 hPa 0,0 l/m 18,4 km/h (3 Bft) SW 218 0 min 0 W/m 11,1 C 7,5 C 30,6 km/h (5 Bft)
13.09.2017 22:36 12,9 C 89 % 992,0 hPa 0,0 l/m 19,7 km/h (3 Bft) S-SW 201 0 min 0 W/m 11,1 C 7,1 C 30,6 km/h (5 Bft)
13.09.2017 22:39 12,9 C 89 % 992,0 hPa 0,0 l/m 23,3 km/h (4 Bft) SW 229 0 min 0 W/m 11,1 C 6,2 C 35,4 km/h (5 Bft)
13.09.2017 22:42 13,0 C 89 % 992,0 hPa 0,0 l/m 24,2 km/h (4 Bft) W 270 0 min 0 W/m 11,2 C 6,1 C 35,4 km/h (5 Bft)
13.09.2017 22:45 13,0 C 89 % 991,9 hPa 0,0 l/m 22,2 km/h (4 Bft) SW 219 0 min 0 W/m 11,2 C 6,6 C 35,4 km/h (5 Bft)
13.09.2017 22:48 13,0 C 88 % 992,1 hPa 0,0 l/m 24,0 km/h (4 Bft) W-SW 253 0 min 0 W/m 11,1 C 6,1 C 41,8 km/h (6 Bft)
13.09.2017 22:51 12,9 C 87 % 992,1 hPa 0,0 l/m 25,5 km/h (4 Bft) SW 232 0 min 0 W/m 10,8 C 5,6 C 38,6 km/h (6 Bft)
13.09.2017 22:54 12,9 C 87 % 992,1 hPa 0,0 l/m 20,1 km/h (4 Bft) SW 229 0 min 0 W/m 10,8 C 7,0 C 30,6 km/h (5 Bft)
13.09.2017 22:57 13,0 C 87 % 992,1 hPa 0,0 l/m 24,2 km/h (4 Bft) SW 234 0 min 0 W/m 10,9 C 6,1 C 35,4 km/h (5 Bft)
13.09.2017 23:00 13,0 C 87 % 992,1 hPa 0,0 l/m 21,7 km/h (4 Bft) SW 226 0 min 0 W/m 10,9 C 6,7 C 33,8 km/h (5 Bft)
13.09.2017 23:03 13,1 C 87 % 992,1 hPa 0,0 l/m 26,0 km/h (4 Bft) W-SW 246 0 min 0 W/m 11,0 C 5,8 C 46,7 km/h (6 Bft)
13.09.2017 23:06 13,1 C 87 % 992,1 hPa 0,0 l/m 23,3 km/h (4 Bft) W-SW 247 0 min 0 W/m 11,0 C 6,4 C 37,0 km/h (5 Bft)
13.09.2017 23:09 13,2 C 86 % 992,1 hPa 0,0 l/m 23,4 km/h (4 Bft) SW 231 0 min 0 W/m 10,9 C 6,5 C 45,1 km/h (6 Bft)
13.09.2017 23:12 13,2 C 86 % 992,2 hPa 0,0 l/m 21,4 km/h (4 Bft) W-SW 250 0 min 0 W/m 10,9 C 7,0 C 33,8 km/h (5 Bft)
13.09.2017 23:15 13,3 C 86 % 992,2 hPa 0,0 l/m 23,7 km/h (4 Bft) W-SW 254 0 min 0 W/m 11,0 C 6,6 C 30,6 km/h (5 Bft)
13.09.2017 23:18 13,3 C 85 % 992,3 hPa 0,0 l/m 21,3 km/h (4 Bft) SW 236 0 min 0 W/m 10,8 C 7,2 C 33,8 km/h (5 Bft)
13.09.2017 23:21 13,3 C 85 % 992,3 hPa 0,0 l/m 29,1 km/h (5 Bft) SW 236 0 min 0 W/m 10,8 C 5,5 C 57,9 km/h (7 Bft)
13.09.2017 23:24 13,3 C 84 % 992,2 hPa 0,0 l/m 29,3 km/h (5 Bft) S-SW 213 0 min 0 W/m 10,7 C 5,4 C 41,8 km/h (6 Bft)
13.09.2017 23:27 13,1 C 84 % 992,2 hPa 0,0 l/m 20,8 km/h (4 Bft) W 269 0 min 0 W/m 10,5 C 7,1 C 37,0 km/h (5 Bft)
13.09.2017 23:30 13,0 C 85 % 992,2 hPa 0,0 l/m 20,5 km/h (4 Bft) SW 219 0 min 0 W/m 10,5 C 7,0 C 33,8 km/h (5 Bft)
13.09.2017 23:33 12,9 C 86 % 992,3 hPa 0,0 l/m 24,1 km/h (4 Bft) SW 220 0 min 0 W/m 10,6 C 6,0 C 33,8 km/h (5 Bft)
13.09.2017 23:36 12,8 C 86 % 992,3 hPa 0,0 l/m 20,7 km/h (4 Bft) SW 236 0 min 0 W/m 10,5 C 6,7 C 37,0 km/h (5 Bft)
13.09.2017 23:39 12,8 C 86 % 992,3 hPa 0,0 l/m 25,2 km/h (4 Bft) S 189 0 min 0 W/m 10,5 C 5,6 C 40,2 km/h (6 Bft)
13.09.2017 23:42 12,8 C 86 % 992,3 hPa 0,0 l/m 18,8 km/h (3 Bft) W 269 0 min 0 W/m 10,5 C 7,3 C 27,4 km/h (5 Bft)
13.09.2017 23:45 12,8 C 86 % 992,3 hPa 0,0 l/m 22,0 km/h (4 Bft) SW 219 0 min 0 W/m 10,5 C 6,4 C 30,6 km/h (5 Bft)
13.09.2017 23:48 12,8 C 86 % 992,3 hPa 0,0 l/m 20,0 km/h (4 Bft) SW 225 0 min 0 W/m 10,5 C 6,9 C 30,6 km/h (5 Bft)
13.09.2017 23:51 12,8 C 86 % 992,2 hPa 0,0 l/m 22,4 km/h (4 Bft) SW 230 0 min 0 W/m 10,5 C 6,3 C 38,6 km/h (6 Bft)
13.09.2017 23:54 12,8 C 86 % 992,3 hPa 0,0 l/m 22,9 km/h (4 Bft) S-SW 207 0 min 0 W/m 10,5 C 6,1 C 35,4 km/h (5 Bft)
13.09.2017 23:57 12,8 C 86 % 992,2 hPa 0,0 l/m 22,0 km/h (4 Bft) S-SW 207 0 min 0 W/m 10,5 C 6,4 C 32,2 km/h (5 Bft)
_ Min-Zeit 07:18 15:24 11:03 - 01:21 - - - - 04:00 17:06 01:39
Minimum _ 11,3 C 73 % 985,4 hPa - 6,4 km/h (2 Bft) - - - - 9,9 C 3,2 C 11,3 km/h (2 Bft)
_ Max-Zeit 13:18 10:06 00:00 16:42 15:24 - - 11:39 13:21 11:42 01:21 17:30
Maximum _ 15,4 C 97 % 1002,8 hPa 1,0 l/m 47,3 km/h
S-SW (6 Bft)
- - 3 min 721 W/m 13,2 C 12,0 C 75,6 km/h
SW (9 Bft)
Durchschnitt _ 13,0 C 88 % 991,8 hPa #13,8 l/m 22,0 km/h (4 Bft) SW - #1:21 h 128 W/m 11,1 C 7,5 C 37,7 km/h (5 Bft)
2017 Cux-Wetter.de -Die Nutzung der Wetterdaten nur mit ausdrcklicher Genehmigung